Time,TemperatureF,DewpointF,PressureIn,WindDirection,WindDirectionDegrees,WindSpeedMPH,WindSpeedGustMPH,Humidity,HourlyPrecipIn,Conditions,Clouds,dailyrainin,SoftwareType,DateUTC
2013-09-22 00:00:00,65.0,53.8,29.84,SSE,158,5.0,15.0,67,0.00,,---,0.00,VWS V14.01,2013-09-22 05:00:00,
2013-09-22 00:10:00,65.0,54.2,29.84,SSE,158,5.0,13.0,68,0.00,,---,0.00,VWS V14.01,2013-09-22 05:10:00,
2013-09-22 00:20:00,64.8,54.0,29.84,SSE,158,4.0,11.0,68,0.00,,---,0.00,VWS V14.01,2013-09-22 05:20:00,
2013-09-22 00:30:00,64.8,54.0,29.83,SSE,158,3.0,11.0,68,0.00,,---,0.00,VWS V14.01,2013-09-22 05:30:00,
2013-09-22 00:40:00,64.8,54.0,29.83,SSE,158,3.0,10.0,68,0.00,,---,0.00,VWS V14.01,2013-09-22 05:40:00,
2013-09-22 00:50:00,64.7,53.9,29.83,SSE,158,3.0,10.0,68,0.00,,---,0.00,VWS V14.01,2013-09-22 05:50:00,
2013-09-22 01:00:00,64.8,53.6,29.83,SSE,158,4.0,12.0,67,0.00,,---,0.00,VWS V14.01,2013-09-22 06:00:00,
2013-09-22 01:10:00,64.8,53.6,29.83,SSE,158,4.0,12.0,67,0.00,,---,0.00,VWS V14.01,2013-09-22 06:10:00,
2013-09-22 01:20:00,64.8,53.6,29.83,SSE,158,5.0,11.0,67,0.00,,---,0.00,VWS V14.01,2013-09-22 06:20:00,
2013-09-22 01:30:00,64.5,53.3,29.83,SSE,158,5.0,14.0,67,0.00,,---,0.00,VWS V14.01,2013-09-22 06:30:00,
2013-09-22 01:40:00,64.2,53.4,29.83,SSE,158,4.0,13.0,68,0.00,,---,0.00,VWS V14.01,2013-09-22 06:40:00,
2013-09-22 01:50:00,63.9,53.1,29.83,SSE,158,5.0,12.0,68,0.00,,---,0.00,VWS V14.01,2013-09-22 06:50:00,
2013-09-22 02:00:00,63.5,53.2,29.83,SSE,158,4.0,14.0,69,0.00,,---,0.00,VWS V14.01,2013-09-22 07:00:00,
2013-09-22 02:10:00,63.1,53.2,29.83,SSE,158,3.0,9.0,70,0.00,,---,0.00,VWS V14.01,2013-09-22 07:10:00,
2013-09-22 02:20:00,62.7,52.8,29.84,SSE,158,3.0,9.0,70,0.00,,---,0.00,VWS V14.01,2013-09-22 07:20:00,
2013-09-22 02:30:00,62.6,52.7,29.84,SSE,158,3.0,10.0,70,0.00,,---,0.00,VWS V14.01,2013-09-22 07:30:00,
2013-09-22 02:40:00,62.6,52.7,29.84,SSE,158,3.0,10.0,70,0.00,,---,0.00,VWS V14.01,2013-09-22 07:40:00,
2013-09-22 02:50:00,62.4,52.5,29.84,SSE,158,2.0,10.0,70,0.00,,---,0.00,VWS V14.01,2013-09-22 07:50:00,
2013-09-22 03:00:00,62.1,52.6,29.83,SSE,158,2.0,6.0,71,0.00,,---,0.00,VWS V14.01,2013-09-22 08:00:00,
2013-09-22 03:10:00,61.8,52.7,29.83,SSE,158,3.0,7.0,72,0.00,,---,0.00,VWS V14.01,2013-09-22 08:10:00,
2013-09-22 03:20:00,61.5,52.4,29.83,SSE,158,3.0,12.0,72,0.00,,---,0.00,VWS V14.01,2013-09-22 08:20:00,
2013-09-22 03:30:00,61.2,52.5,29.83,SSE,158,3.0,9.0,73,0.00,,---,0.00,VWS V14.01,2013-09-22 08:30:00,
2013-09-22 03:40:00,60.5,52.2,29.83,SSE,158,3.0,7.0,74,0.00,,---,0.00,VWS V14.01,2013-09-22 08:40:00,
2013-09-22 03:50:00,60.1,52.2,29.83,SSE,158,2.0,6.0,75,0.00,,---,0.00,VWS V14.01,2013-09-22 08:50:00,
2013-09-22 04:00:00,59.8,52.2,29.83,SSE,158,2.0,7.0,76,0.00,,---,0.00,VWS V14.01,2013-09-22 09:00:00,
2013-09-22 04:10:00,59.5,52.3,29.83,SSE,158,3.0,8.0,77,0.00,,---,0.00,VWS V14.01,2013-09-22 09:10:00,
2013-09-22 04:20:00,59.5,52.3,29.83,SSE,158,6.0,10.0,77,0.00,,---,0.00,VWS V14.01,2013-09-22 09:20:00,
2013-09-22 04:30:00,59.5,52.3,29.83,SSE,158,7.0,11.0,77,0.00,,---,0.00,VWS V14.01,2013-09-22 09:30:00,
2013-09-22 04:40:00,59.3,52.1,29.83,SSE,158,5.0,11.0,77,0.00,,---,0.00,VWS V14.01,2013-09-22 09:40:00,
2013-09-22 04:50:00,59.3,52.1,29.83,SSE,158,3.0,10.0,77,0.00,,---,0.00,VWS V14.01,2013-09-22 09:50:00,
2013-09-22 05:00:00,58.7,51.9,29.83,South,180,1.0,4.0,78,0.00,,---,0.00,VWS V14.01,2013-09-22 10:00:00,
2013-09-22 05:10:00,58.1,51.6,29.83,South,180,0.0,2.0,79,0.00,,---,0.00,VWS V14.01,2013-09-22 10:10:00,
2013-09-22 05:20:00,58.0,51.9,29.83,South,180,0.0,3.0,80,0.00,,---,0.00,VWS V14.01,2013-09-22 10:20:00,
2013-09-22 05:30:00,57.8,51.7,29.84,South,180,0.0,0.0,80,0.00,,---,0.00,VWS V14.01,2013-09-22 10:30:00,
2013-09-22 05:40:00,57.5,51.4,29.84,South,180,0.0,0.0,80,0.00,,---,0.00,VWS V14.01,2013-09-22 10:40:00,
2013-09-22 05:50:00,57.6,51.5,29.84,SSE,158,1.0,5.0,80,0.00,,---,0.00,VWS V14.01,2013-09-22 10:50:00,
2013-09-22 06:00:00,57.8,51.3,29.85,SSE,158,1.0,6.0,79,0.00,,---,0.00,VWS V14.01,2013-09-22 11:00:00,
2013-09-22 06:10:00,57.3,51.2,29.85,SSE,158,0.0,2.0,80,0.00,,---,0.00,VWS V14.01,2013-09-22 11:10:00,
2013-09-22 06:20:00,57.3,51.2,29.85,SSE,158,0.0,2.0,80,0.00,,---,0.00,VWS V14.01,2013-09-22 11:20:00,
2013-09-22 06:30:00,57.3,51.2,29.85,SSE,158,0.0,4.0,80,0.00,,---,0.00,VWS V14.01,2013-09-22 11:30:00,
2013-09-22 06:40:00,57.2,51.1,29.85,SSE,158,0.0,2.0,80,0.00,,---,0.00,VWS V14.01,2013-09-22 11:40:00,
2013-09-22 06:50:00,57.0,51.2,29.85,SSE,158,0.0,0.0,81,0.00,,---,0.00,VWS V14.01,2013-09-22 11:50:00,
2013-09-22 07:00:00,56.9,51.1,29.85,SSE,158,0.0,0.0,81,0.00,,---,0.00,VWS V14.01,2013-09-22 12:00:00,
2013-09-22 07:10:00,56.6,51.2,29.85,SSE,158,0.0,0.0,82,0.00,,---,0.00,VWS V14.01,2013-09-22 12:10:00,
2013-09-22 07:20:00,56.3,50.9,29.86,SSE,158,0.0,0.0,82,0.00,,---,0.00,VWS V14.01,2013-09-22 12:20:00,
2013-09-22 07:30:00,56.3,51.2,29.87,SSE,158,0.0,0.0,83,0.00,,---,0.00,VWS V14.01,2013-09-22 12:30:00,
2013-09-22 07:40:00,56.5,51.4,29.87,SSE,158,1.0,6.0,83,0.00,,---,0.00,VWS V14.01,2013-09-22 12:40:00,
2013-09-22 07:50:00,56.7,51.6,29.87,SSE,158,4.0,7.0,83,0.00,,---,0.00,VWS V14.01,2013-09-22 12:50:00,
2013-09-22 08:00:00,57.0,51.6,29.87,SSE,158,5.0,9.0,82,0.00,,---,0.00,VWS V14.01,2013-09-22 13:00:00,
2013-09-22 08:10:00,57.6,52.2,29.87,SSE,158,5.0,10.0,82,0.00,,---,0.00,VWS V14.01,2013-09-22 13:10:00,
2013-09-22 08:20:00,58.6,52.5,29.88,SSE,158,3.0,6.0,80,0.00,,---,0.00,VWS V14.01,2013-09-22 13:20:00,
2013-09-22 08:30:00,59.0,52.5,29.88,SSE,158,5.0,9.0,79,0.00,,---,0.00,VWS V14.01,2013-09-22 13:30:00,
2013-09-22 08:40:00,59.3,52.5,29.88,SSE,158,6.0,10.0,78,0.00,,---,0.00,VWS V14.01,2013-09-22 13:40:00,
2013-09-22 08:50:00,60.2,53.0,29.88,SSE,158,4.0,10.0,77,0.00,,---,0.00,VWS V14.01,2013-09-22 13:50:00,
2013-09-22 09:00:00,61.5,53.5,29.87,SSE,158,3.0,10.0,75,0.00,,---,0.00,VWS V14.01,2013-09-22 14:00:00,
2013-09-22 09:08:00,62.1,53.3,29.87,SSE,155,1.0,4.0,73,0.00,,---,0.00,VWS V14.01,2013-09-22 14:08:00,
2013-09-22 09:10:00,62.4,53.6,29.87,SSE,158,3.0,10.0,73,0.00,,---,0.00,VWS V14.01,2013-09-22 14:10:00,
2013-09-22 09:13:00,62.7,53.5,29.87,SSE,160,2.0,3.0,72,0.00,,---,0.00,VWS V14.01,2013-09-22 14:13:00,
2013-09-22 09:18:00,63.2,53.7,29.88,SSE,164,0.0,5.0,71,0.00,,---,0.00,VWS V14.01,2013-09-22 14:18:00,
2013-09-22 09:19:00,63.4,53.5,29.88,South,186,3.0,6.0,70,0.00,,---,0.00,VWS V14.01,2013-09-22 14:19:00,
2013-09-22 09:20:00,63.7,53.7,29.88,SSE,158,1.0,6.0,70,0.00,,---,0.00,VWS V14.01,2013-09-22 14:20:00,
2013-09-22 09:23:00,64.0,53.6,29.88,South,181,2.0,5.0,69,0.00,,---,0.00,VWS V14.01,2013-09-22 14:23:00,
2013-09-22 09:24:00,64.2,53.4,29.88,South,181,3.0,5.0,68,0.00,,---,0.00,VWS V14.01,2013-09-22 14:24:00,
2013-09-22 09:28:00,64.7,53.9,29.88,SSE,167,0.0,6.0,68,0.00,,---,0.00,VWS V14.01,2013-09-22 14:28:00,
2013-09-22 09:29:00,64.8,53.6,29.88,SSE,163,1.0,6.0,67,0.00,,---,0.00,VWS V14.01,2013-09-22 14:29:00,
2013-09-22 09:30:00,65.2,54.0,29.89,SSE,158,1.0,6.0,67,0.00,,---,0.00,VWS V14.01,2013-09-22 14:30:00,
2013-09-22 09:33:00,65.5,53.8,29.89,SSE,151,5.0,12.0,66,0.00,,---,0.00,VWS V14.01,2013-09-22 14:33:00,
2013-09-22 09:34:00,65.6,53.5,29.89,SSE,163,2.0,12.0,65,0.00,,---,0.00,VWS V14.01,2013-09-22 14:34:00,
2013-09-22 09:38:00,66.1,53.6,29.89,SSE,150,0.0,12.0,64,0.00,,---,0.00,VWS V14.01,2013-09-22 14:38:00,
2013-09-22 09:39:00,66.3,53.8,29.89,South,177,0.0,12.0,64,0.00,,---,0.00,VWS V14.01,2013-09-22 14:39:00,
2013-09-22 09:40:00,66.4,53.4,29.89,SSE,158,2.0,12.0,63,0.00,,---,0.00,VWS V14.01,2013-09-22 14:40:00,
2013-09-22 09:43:00,66.8,53.8,29.89,SSW,206,4.0,6.0,63,0.00,,---,0.00,VWS V14.01,2013-09-22 14:43:00,
2013-09-22 09:44:00,66.9,53.5,29.89,SSE,151,5.0,12.0,62,0.00,,---,0.00,VWS V14.01,2013-09-22 14:44:00,
2013-09-22 09:48:00,67.4,53.0,29.88,SE,146,3.0,12.0,60,0.00,,---,0.00,VWS V14.01,2013-09-22 14:48:00,
2013-09-22 09:49:00,67.6,53.7,29.88,SE,146,0.0,12.0,61,0.00,,---,0.00,VWS V14.01,2013-09-22 14:49:00,
2013-09-22 09:50:00,67.8,53.9,29.88,SSE,156,2.0,12.0,61,0.00,,---,0.00,VWS V14.01,2013-09-22 14:50:00,
2013-09-22 09:53:00,68.1,53.7,29.88,SSE,163,5.0,9.0,60,0.00,,---,0.00,VWS V14.01,2013-09-22 14:53:00,
2013-09-22 09:54:00,68.3,53.9,29.88,SSE,165,2.0,9.0,60,0.00,,---,0.00,VWS V14.01,2013-09-22 14:54:00,
2013-09-22 09:55:00,68.4,53.5,29.88,SSE,156,3.0,9.0,59,0.00,,---,0.00,VWS V14.01,2013-09-22 14:55:00,
2013-09-22 09:58:00,68.8,53.4,29.88,SSE,165,0.0,9.0,58,0.00,,---,0.00,VWS V14.01,2013-09-22 14:58:00,
2013-09-22 09:59:00,68.9,53.1,29.88,SSE,152,4.0,9.0,57,0.00,,---,0.00,VWS V14.01,2013-09-22 14:59:00,
2013-09-22 10:00:00,69.1,53.2,29.88,SSE,150,4.0,12.0,57,0.00,,---,0.00,VWS V14.01,2013-09-22 15:00:00,
2013-09-22 10:03:00,69.1,54.7,29.88,SSE,155,3.0,13.0,60,0.00,,---,0.00,VWS V14.01,2013-09-22 15:03:00,
2013-09-22 10:04:00,69.1,53.2,29.88,SSE,155,3.0,13.0,57,0.00,,---,0.00,VWS V14.01,2013-09-22 15:04:00,
2013-09-22 10:05:00,69.3,53.4,29.88,SSE,148,2.0,13.0,57,0.00,,---,0.00,VWS V14.01,2013-09-22 15:05:00,
2013-09-22 10:08:00,69.4,53.0,29.88,SSE,153,0.0,13.0,56,0.00,,---,0.00,VWS V14.01,2013-09-22 15:08:00,
2013-09-22 10:09:00,69.6,53.2,29.88,SSE,149,5.0,13.0,56,0.00,,---,0.00,VWS V14.01,2013-09-22 15:09:00,
2013-09-22 10:10:00,69.6,53.2,29.88,SSE,156,5.0,13.0,56,0.00,,---,0.00,VWS V14.01,2013-09-22 15:10:00,
2013-09-22 10:13:00,70.1,52.2,29.88,SSE,149,1.0,9.0,53,0.00,,---,0.00,VWS V14.01,2013-09-22 15:13:00,
2013-09-22 10:14:00,70.3,52.9,29.88,SSE,151,5.0,9.0,54,0.00,,---,0.00,VWS V14.01,2013-09-22 15:14:00,
2013-09-22 10:15:00,70.3,52.9,29.88,SE,146,5.0,13.0,54,0.00,,---,0.00,VWS V14.01,2013-09-22 15:15:00,
2013-09-22 10:18:00,70.4,51.4,29.88,SSE,154,2.0,14.0,51,0.00,,---,0.00,VWS V14.01,2013-09-22 15:18:00,
2013-09-22 10:20:00,70.6,52.1,29.88,SE,143,13.0,14.0,52,0.00,,---,0.00,VWS V14.01,2013-09-22 15:20:00,
2013-09-22 10:23:00,70.9,51.9,29.88,SSE,156,3.0,19.0,51,0.00,,---,0.00,VWS V14.01,2013-09-22 15:23:00,
2013-09-22 10:25:00,70.9,50.8,29.88,South,180,8.0,19.0,49,0.00,,---,0.00,VWS V14.01,2013-09-22 15:25:00,
2013-09-22 10:26:00,70.9,51.3,29.88,SSE,147,11.0,19.0,50,0.00,,---,0.00,VWS V14.01,2013-09-22 15:26:00,
2013-09-22 10:28:00,71.1,52.1,29.88,South,182,6.0,19.0,51,0.00,,---,0.00,VWS V14.01,2013-09-22 15:28:00,
2013-09-22 10:29:00,71.1,52.1,29.88,SSE,167,4.0,19.0,51,0.00,,---,0.00,VWS V14.01,2013-09-22 15:29:00,
2013-09-22 10:30:00,71.1,52.1,29.88,SSE,163,3.0,19.0,51,0.00,,---,0.00,VWS V14.01,2013-09-22 15:30:00,
2013-09-22 10:31:00,71.3,51.7,29.88,SSE,159,5.0,19.0,50,0.00,,---,0.00,VWS V14.01,2013-09-22 15:31:00,
2013-09-22 10:33:00,71.5,52.4,29.88,SSE,148,5.0,13.0,51,0.00,,---,0.00,VWS V14.01,2013-09-22 15:33:00,
2013-09-22 10:34:00,71.5,52.4,29.88,SSE,155,4.0,13.0,51,0.00,,---,0.00,VWS V14.01,2013-09-22 15:34:00,
2013-09-22 10:35:00,71.6,52.0,29.88,SSE,150,4.0,15.0,50,0.00,,---,0.00,VWS V14.01,2013-09-22 15:35:00,
2013-09-22 10:36:00,71.6,52.5,29.88,SSE,155,2.0,15.0,51,0.00,,---,0.00,VWS V14.01,2013-09-22 15:36:00,
2013-09-22 10:38:00,71.8,51.6,29.88,SSE,155,5.0,18.0,49,0.00,,---,0.00,VWS V14.01,2013-09-22 15:38:00,
2013-09-22 10:39:00,71.8,51.1,29.88,SSE,154,15.0,20.0,48,0.00,,---,0.00,VWS V14.01,2013-09-22 15:39:00,
2013-09-22 10:40:00,71.8,50.5,29.88,SE,146,5.0,20.0,47,0.00,,---,0.00,VWS V14.01,2013-09-22 15:40:00,
2013-09-22 10:41:00,71.8,51.1,29.88,SSE,159,10.0,10.0,48,0.00,,---,0.00,VWS V14.01,2013-09-22 15:41:00,
2013-09-22 10:43:00,72.0,51.3,29.88,SSE,157,8.0,14.0,48,0.00,,---,0.00,VWS V14.01,2013-09-22 15:43:00,
2013-09-22 10:44:00,72.0,51.3,29.88,SSE,150,6.0,14.0,48,0.00,,---,0.00,VWS V14.01,2013-09-22 15:44:00,
2013-09-22 10:45:00,72.1,51.3,29.88,SSE,154,7.0,14.0,48,0.00,,---,0.00,VWS V14.01,2013-09-22 15:45:00,
2013-09-22 10:46:00,72.1,51.9,29.88,SSE,152,16.0,16.0,49,0.00,,---,0.00,VWS V14.01,2013-09-22 15:46:00,
2013-09-22 10:48:00,72.3,51.5,29.88,SE,142,14.0,16.0,48,0.00,,---,0.00,VWS V14.01,2013-09-22 15:48:00,
2013-09-22 10:49:00,72.3,52.1,29.88,SE,134,11.0,16.0,49,0.00,,---,0.00,VWS V14.01,2013-09-22 15:49:00,
2013-09-22 10:50:00,72.5,52.3,29.88,SSE,148,7.0,16.0,49,0.00,,---,0.00,VWS V14.01,2013-09-22 15:50:00,
2013-09-22 10:51:00,72.5,51.2,29.88,SSE,160,6.0,21.0,47,0.00,,---,0.00,VWS V14.01,2013-09-22 15:51:00,
2013-09-22 10:53:00,72.5,51.2,29.88,SE,140,19.0,21.0,47,0.00,,---,0.00,VWS V14.01,2013-09-22 15:53:00,
2013-09-22 10:54:00,72.5,50.6,29.88,SSE,148,4.0,21.0,46,0.00,,---,0.00,VWS V14.01,2013-09-22 15:54:00,
2013-09-22 10:55:00,72.7,51.3,29.88,SSE,157,3.0,21.0,47,0.00,,---,0.00,VWS V14.01,2013-09-22 15:55:00,
2013-09-22 10:56:00,72.8,50.2,29.88,SE,141,17.0,21.0,45,0.00,,---,0.00,VWS V14.01,2013-09-22 15:56:00,
2013-09-22 10:58:00,72.8,49.6,29.88,SSE,151,10.0,25.0,44,0.00,,---,0.00,VWS V14.01,2013-09-22 15:58:00,
2013-09-22 10:59:00,72.8,49.0,29.88,SSE,167,9.0,25.0,43,0.00,,---,0.00,VWS V14.01,2013-09-22 15:59:00,
2013-09-22 11:00:00,73.0,49.8,29.87,SSE,158,13.0,25.0,44,0.00,,---,0.00,VWS V14.01,2013-09-22 16:00:00,
2013-09-22 11:01:00,73.0,49.8,29.87,SSE,150,12.0,25.0,44,0.00,,---,0.00,VWS V14.01,2013-09-22 16:01:00,
2013-09-22 11:03:00,72.8,48.4,29.87,SSE,159,13.0,22.0,42,0.00,,---,0.00,VWS V14.01,2013-09-22 16:03:00,
2013-09-22 11:05:00,72.7,48.9,29.87,South,175,8.0,22.0,43,0.00,,---,0.00,VWS V14.01,2013-09-22 16:05:00,
2013-09-22 11:06:00,72.8,50.2,29.87,SSE,148,7.0,22.0,45,0.00,,---,0.00,VWS V14.01,2013-09-22 16:06:00,
2013-09-22 11:07:00,72.8,49.6,29.87,South,190,12.0,22.0,44,0.00,,---,0.00,VWS V14.01,2013-09-22 16:07:00,
2013-09-22 11:08:00,73.0,50.4,29.87,SSE,162,7.0,22.0,45,0.00,,---,0.00,VWS V14.01,2013-09-22 16:08:00,
2013-09-22 11:10:00,73.2,50.0,29.87,SSW,193,10.0,22.0,44,0.00,,---,0.00,VWS V14.01,2013-09-22 16:10:00,
2013-09-22 11:11:00,73.2,50.6,29.87,SSE,152,9.0,10.0,45,0.00,,---,0.00,VWS V14.01,2013-09-22 16:11:00,
2013-09-22 11:12:00,73.3,50.7,29.87,South,172,6.0,11.0,45,0.00,,---,0.00,VWS V14.01,2013-09-22 16:12:00,
2013-09-22 11:13:00,73.5,50.3,29.87,SE,140,15.0,15.0,44,0.00,,---,0.00,VWS V14.01,2013-09-22 16:13:00,
2013-09-22 11:15:00,73.7,50.5,29.87,SE,128,10.0,15.0,44,0.00,,---,0.00,VWS V14.01,2013-09-22 16:15:00,
2013-09-22 11:16:00,73.9,51.2,29.87,South,181,6.0,15.0,45,0.00,,---,0.00,VWS V14.01,2013-09-22 16:16:00,
2013-09-22 11:17:00,74.0,51.3,29.87,SSE,147,9.0,15.0,45,0.00,,---,0.00,VWS V14.01,2013-09-22 16:17:00,
2013-09-22 11:18:00,74.2,49.7,29.87,SE,146,6.0,15.0,42,0.00,,---,0.00,VWS V14.01,2013-09-22 16:18:00,
2013-09-22 11:20:00,74.0,49.5,29.87,SSE,165,4.0,18.0,42,0.00,,---,0.00,VWS V14.01,2013-09-22 16:20:00,
2013-09-22 11:21:00,73.9,49.4,29.87,SSE,150,12.0,12.0,42,0.00,,---,0.00,VWS V14.01,2013-09-22 16:21:00,
2013-09-22 11:22:00,73.7,49.2,29.87,SSE,150,18.0,21.0,42,0.00,,---,0.00,VWS V14.01,2013-09-22 16:22:00,
2013-09-22 11:23:00,73.9,49.4,29.87,SE,134,14.0,21.0,42,0.00,,---,0.00,VWS V14.01,2013-09-22 16:23:00,
2013-09-22 11:25:00,73.9,50.0,29.87,South,189,7.0,21.0,43,0.00,,---,0.00,VWS V14.01,2013-09-22 16:25:00,
2013-09-22 11:26:00,73.9,50.0,29.87,South,173,11.0,21.0,43,0.00,,---,0.00,VWS V14.01,2013-09-22 16:26:00,
2013-09-22 11:27:00,73.9,50.0,29.87,SSE,163,4.0,21.0,43,0.00,,---,0.00,VWS V14.01,2013-09-22 16:27:00,
2013-09-22 11:28:00,73.9,50.0,29.87,SE,146,6.0,21.0,43,0.00,,---,0.00,VWS V14.01,2013-09-22 16:28:00,
2013-09-22 11:30:00,74.0,50.7,29.87,SSE,159,3.0,21.0,44,0.00,,---,0.00,VWS V14.01,2013-09-22 16:30:00,
2013-09-22 11:31:00,74.2,50.9,29.87,SSE,153,9.0,10.0,44,0.00,,---,0.00,VWS V14.01,2013-09-22 16:31:00,
2013-09-22 11:32:00,74.2,49.7,29.87,SSE,147,12.0,16.0,42,0.00,,---,0.00,VWS V14.01,2013-09-22 16:32:00,
2013-09-22 11:34:00,74.2,48.3,29.87,SE,136,14.0,20.0,40,0.00,,---,0.00,VWS V14.01,2013-09-22 16:34:00,
2013-09-22 11:36:00,74.4,47.9,29.87,SE,131,18.0,24.0,39,0.00,,---,0.00,VWS V14.01,2013-09-22 16:36:00,
2013-09-22 11:37:00,74.4,48.5,29.87,SE,141,12.0,24.0,40,0.00,,---,0.00,VWS V14.01,2013-09-22 16:37:00,
2013-09-22 11:38:00,74.6,48.7,29.87,SE,141,16.0,24.0,40,0.00,,---,0.00,VWS V14.01,2013-09-22 16:38:00,
2013-09-22 11:40:00,74.6,48.0,29.87,SE,135,14.0,24.0,39,0.00,,---,0.00,VWS V14.01,2013-09-22 16:40:00,
2013-09-22 11:41:00,74.6,48.0,29.87,SE,144,21.0,21.0,39,0.00,,---,0.00,VWS V14.01,2013-09-22 16:41:00,
2013-09-22 11:42:00,74.6,48.0,29.87,SE,144,16.0,24.0,39,0.00,,---,0.00,VWS V14.01,2013-09-22 16:42:00,
2013-09-22 11:44:00,74.6,48.0,29.87,SSE,147,4.0,24.0,39,0.00,,---,0.00,VWS V14.01,2013-09-22 16:44:00,
2013-09-22 11:46:00,74.6,46.6,29.86,ESE,121,14.0,24.0,37,0.00,,---,0.00,VWS V14.01,2013-09-22 16:46:00,
2013-09-22 11:47:00,74.6,48.7,29.86,SSE,155,14.0,24.0,40,0.00,,---,0.00,VWS V14.01,2013-09-22 16:47:00,
2013-09-22 11:49:00,74.4,48.5,29.86,SE,142,18.0,24.0,40,0.00,,---,0.00,VWS V14.01,2013-09-22 16:49:00,
2013-09-22 11:50:00,74.4,48.5,29.86,SE,135,15.0,24.0,40,0.00,,---,0.00,VWS V14.01,2013-09-22 16:50:00,
2013-09-22 11:51:00,74.2,47.7,29.86,SSE,165,17.0,19.0,39,0.00,,---,0.00,VWS V14.01,2013-09-22 16:51:00,
2013-09-22 11:52:00,74.4,48.5,29.86,SSE,159,11.0,19.0,40,0.00,,---,0.00,VWS V14.01,2013-09-22 16:52:00,
2013-09-22 11:54:00,74.4,49.2,29.86,SSE,159,7.0,19.0,41,0.00,,---,0.00,VWS V14.01,2013-09-22 16:54:00,
2013-09-22 11:56:00,74.6,48.7,29.86,SE,134,15.0,20.0,40,0.00,,---,0.00,VWS V14.01,2013-09-22 16:56:00,
2013-09-22 11:57:00,74.7,48.8,29.86,SE,129,16.0,21.0,40,0.00,,---,0.00,VWS V14.01,2013-09-22 16:57:00,
2013-09-22 11:59:00,74.7,48.1,29.86,ESE,112,16.0,21.0,39,0.00,,---,0.00,VWS V14.01,2013-09-22 16:59:00,
2013-09-22 12:00:00,74.7,48.1,29.86,SE,135,14.0,21.0,39,0.00,,---,0.00,VWS V14.01,2013-09-22 17:00:00,
2013-09-22 12:01:00,74.9,49.0,29.86,SE,143,14.0,17.0,40,0.00,,---,0.00,VWS V14.01,2013-09-22 17:01:00,
2013-09-22 12:02:00,75.1,48.5,29.86,SE,134,17.0,25.0,39,0.00,,---,0.00,VWS V14.01,2013-09-22 17:02:00,
2013-09-22 12:04:00,74.9,48.3,29.86,SE,133,22.0,25.0,39,0.00,,---,0.00,VWS V14.01,2013-09-22 17:04:00,
2013-09-22 12:06:00,74.7,47.4,29.86,SSE,150,13.0,25.0,38,0.00,,---,0.00,VWS V14.01,2013-09-22 17:06:00,
2013-09-22 12:07:00,74.7,48.1,29.86,ESE,111,14.0,25.0,39,0.00,,---,0.00,VWS V14.01,2013-09-22 17:07:00,
2013-09-22 12:09:00,75.1,48.5,29.86,ESE,118,13.0,25.0,39,0.00,,---,0.00,VWS V14.01,2013-09-22 17:09:00,
2013-09-22 12:10:00,75.3,48.7,29.86,SE,135,16.0,25.0,39,0.00,,---,0.00,VWS V14.01,2013-09-22 17:10:00,
2013-09-22 12:12:00,75.3,48.0,29.86,SE,131,17.0,21.0,38,0.00,,---,0.00,VWS V14.01,2013-09-22 17:12:00,
2013-09-22 12:14:00,75.1,47.8,29.86,SSE,149,12.0,21.0,38,0.00,,---,0.00,VWS V14.01,2013-09-22 17:14:00,
2013-09-22 12:17:00,74.9,47.6,29.85,SSE,158,17.0,24.0,38,0.00,,---,0.00,VWS V14.01,2013-09-22 17:17:00,
2013-09-22 12:18:00,74.9,48.3,29.85,SE,142,7.0,24.0,39,0.00,,---,0.00,VWS V14.01,2013-09-22 17:18:00,
2013-09-22 12:19:00,75.1,48.5,29.85,SE,145,14.0,24.0,39,0.00,,---,0.00,VWS V14.01,2013-09-22 17:19:00,
2013-09-22 12:20:00,74.9,47.6,29.85,SSE,158,15.0,24.0,38,0.00,,---,0.00,VWS V14.01,2013-09-22 17:20:00,
2013-09-22 12:22:00,74.9,49.0,29.85,SE,129,12.0,20.0,40,0.00,,---,0.00,VWS V14.01,2013-09-22 17:22:00,
2013-09-22 12:23:00,75.1,48.5,29.85,SSE,154,15.0,20.0,39,0.00,,---,0.00,VWS V14.01,2013-09-22 17:23:00,
2013-09-22 12:24:00,75.3,48.7,29.85,SSE,147,17.0,20.0,39,0.00,,---,0.00,VWS V14.01,2013-09-22 17:24:00,
2013-09-22 12:27:00,75.3,47.3,29.85,SE,128,13.0,23.0,37,0.00,,---,0.00,VWS V14.01,2013-09-22 17:27:00,
2013-09-22 12:28:00,75.4,48.8,29.85,SE,146,11.0,23.0,39,0.00,,---,0.00,VWS V14.01,2013-09-22 17:28:00,
2013-09-22 12:29:00,75.4,48.8,29.85,SSE,164,16.0,23.0,39,0.00,,---,0.00,VWS V14.01,2013-09-22 17:29:00,
2013-09-22 12:30:00,75.4,48.0,29.85,SE,135,15.0,23.0,38,0.00,,---,0.00,VWS V14.01,2013-09-22 17:30:00,
2013-09-22 12:32:00,75.3,48.0,29.85,SSE,156,15.0,23.0,38,0.00,,---,0.00,VWS V14.01,2013-09-22 17:32:00,
2013-09-22 12:33:00,75.3,48.0,29.85,SE,132,12.0,23.0,38,0.00,,---,0.00,VWS V14.01,2013-09-22 17:33:00,
2013-09-22 12:34:00,75.6,49.6,29.85,SE,136,20.0,23.0,40,0.00,,---,0.00,VWS V14.01,2013-09-22 17:34:00,
2013-09-22 12:37:00,75.8,47.7,29.85,SSE,155,16.0,23.0,37,0.00,,---,0.00,VWS V14.01,2013-09-22 17:37:00,
2013-09-22 12:38:00,75.8,47.7,29.85,SSE,158,14.0,23.0,37,0.00,,---,0.00,VWS V14.01,2013-09-22 17:38:00,
2013-09-22 12:39:00,75.8,47.7,29.85,SE,125,20.0,23.0,37,0.00,,---,0.00,VWS V14.01,2013-09-22 17:39:00,
2013-09-22 12:40:00,75.8,47.7,29.85,SE,135,16.0,23.0,37,0.00,,---,0.00,VWS V14.01,2013-09-22 17:40:00,
2013-09-22 12:42:00,76.0,47.2,29.85,SSE,153,17.0,22.0,36,0.00,,---,0.00,VWS V14.01,2013-09-22 17:42:00,
2013-09-22 12:43:00,76.1,48.0,29.85,SSE,155,11.0,22.0,37,0.00,,---,0.00,VWS V14.01,2013-09-22 17:43:00,
2013-09-22 12:44:00,76.1,48.0,29.85,SE,138,20.0,24.0,37,0.00,,---,0.00,VWS V14.01,2013-09-22 17:44:00,
2013-09-22 12:47:00,75.8,47.0,29.84,SE,127,16.0,24.0,36,0.00,,---,0.00,VWS V14.01,2013-09-22 17:47:00,
2013-09-22 12:48:00,75.8,48.4,29.84,SE,127,14.0,24.0,38,0.00,,---,0.00,VWS V14.01,2013-09-22 17:48:00,
2013-09-22 12:49:00,76.0,47.9,29.84,SE,134,15.0,24.0,37,0.00,,---,0.00,VWS V14.01,2013-09-22 17:49:00,
2013-09-22 12:50:00,76.3,48.8,29.84,SE,135,16.0,24.0,38,0.00,,---,0.00,VWS V14.01,2013-09-22 17:50:00,
2013-09-22 12:52:00,76.3,48.1,29.84,SE,139,17.0,17.0,37,0.00,,---,0.00,VWS V14.01,2013-09-22 17:52:00,
2013-09-22 12:53:00,76.5,48.3,29.84,SE,138,12.0,17.0,37,0.00,,---,0.00,VWS V14.01,2013-09-22 17:53:00,
2013-09-22 12:54:00,76.5,48.3,29.84,SSE,147,3.0,17.0,37,0.00,,---,0.00,VWS V14.01,2013-09-22 17:54:00,
2013-09-22 12:57:00,76.5,48.3,29.84,SSE,155,10.0,24.0,37,0.00,,---,0.00,VWS V14.01,2013-09-22 17:57:00,
2013-09-22 12:58:00,76.5,48.3,29.84,SE,131,15.0,24.0,37,0.00,,---,0.00,VWS V14.01,2013-09-22 17:58:00,
2013-09-22 12:59:00,76.7,48.5,29.84,SSE,152,14.0,24.0,37,0.00,,---,0.00,VWS V14.01,2013-09-22 17:59:00,
2013-09-22 13:00:00,76.5,46.8,29.83,SE,135,14.0,24.0,35,0.00,,---,0.00,VWS V14.01,2013-09-22 18:00:00,
2013-09-22 13:02:00,76.5,48.3,29.83,SE,127,15.0,21.0,37,0.00,,---,0.00,VWS V14.01,2013-09-22 18:02:00,
2013-09-22 13:03:00,76.3,46.7,29.83,SE,126,18.0,21.0,35,0.00,,---,0.00,VWS V14.01,2013-09-22 18:03:00,
2013-09-22 13:04:00,76.3,47.4,29.83,SE,141,13.0,23.0,36,0.00,,---,0.00,VWS V14.01,2013-09-22 18:04:00,
2013-09-22 13:07:00,76.3,48.1,29.83,SSE,156,8.0,23.0,37,0.00,,---,0.00,VWS V14.01,2013-09-22 18:07:00,
2013-09-22 13:08:00,76.3,48.1,29.83,SE,146,7.0,23.0,37,0.00,,---,0.00,VWS V14.01,2013-09-22 18:08:00,
2013-09-22 13:09:00,76.5,48.3,29.83,SSE,149,11.0,23.0,37,0.00,,---,0.00,VWS V14.01,2013-09-22 18:09:00,
2013-09-22 13:10:00,76.8,48.6,29.83,SE,135,12.0,23.0,37,0.00,,---,0.00,VWS V14.01,2013-09-22 18:10:00,
2013-09-22 13:12:00,76.7,47.0,29.83,South,172,0.0,11.0,35,0.00,,---,0.00,VWS V14.01,2013-09-22 18:12:00,
2013-09-22 13:13:00,76.7,47.8,29.83,SSE,153,6.0,11.0,36,0.00,,---,0.00,VWS V14.01,2013-09-22 18:13:00,
2013-09-22 13:14:00,76.7,48.5,29.83,SE,129,6.0,11.0,37,0.00,,---,0.00,VWS V14.01,2013-09-22 18:14:00,
2013-09-22 13:17:00,76.5,46.8,29.83,SSE,167,7.0,19.0,35,0.00,,---,0.00,VWS V14.01,2013-09-22 18:17:00,
2013-09-22 13:18:00,76.5,48.3,29.83,SSE,167,4.0,19.0,37,0.00,,---,0.00,VWS V14.01,2013-09-22 18:18:00,
2013-09-22 13:19:00,76.5,48.3,29.83,SSE,150,13.0,19.0,37,0.00,,---,0.00,VWS V14.01,2013-09-22 18:19:00,
2013-09-22 13:20:00,76.5,48.3,29.83,SSE,158,8.0,19.0,37,0.00,,---,0.00,VWS V14.01,2013-09-22 18:20:00,
2013-09-22 13:22:00,76.5,48.3,29.83,SE,142,3.0,18.0,37,0.00,,---,0.00,VWS V14.01,2013-09-22 18:22:00,
2013-09-22 13:23:00,76.5,48.3,29.83,SSE,157,16.0,18.0,37,0.00,,---,0.00,VWS V14.01,2013-09-22 18:23:00,
2013-09-22 13:24:00,76.7,48.5,29.83,SE,138,15.0,24.0,37,0.00,,---,0.00,VWS V14.01,2013-09-22 18:24:00,
2013-09-22 13:27:00,76.8,47.8,29.83,SSE,158,11.0,24.0,36,0.00,,---,0.00,VWS V14.01,2013-09-22 18:27:00,
2013-09-22 13:28:00,76.7,47.0,29.83,SSE,154,2.0,24.0,35,0.00,,---,0.00,VWS V14.01,2013-09-22 18:28:00,
2013-09-22 13:29:00,76.7,47.8,29.83,SE,142,10.0,24.0,36,0.00,,---,0.00,VWS V14.01,2013-09-22 18:29:00,
2013-09-22 13:30:00,76.7,48.5,29.83,SSE,158,12.0,24.0,37,0.00,,---,0.00,VWS V14.01,2013-09-22 18:30:00,
2013-09-22 13:32:00,76.7,48.5,29.83,ESE,123,15.0,19.0,37,0.00,,---,0.00,VWS V14.01,2013-09-22 18:32:00,
2013-09-22 13:33:00,76.7,48.5,29.83,SE,135,21.0,21.0,37,0.00,,---,0.00,VWS V14.01,2013-09-22 18:33:00,
2013-09-22 13:34:00,76.7,48.5,29.83,SE,126,23.0,23.0,37,0.00,,---,0.00,VWS V14.01,2013-09-22 18:34:00,
2013-09-22 13:37:00,77.0,49.5,29.83,SE,128,13.0,23.0,38,0.00,,---,0.00,VWS V14.01,2013-09-22 18:37:00,
2013-09-22 13:38:00,77.2,48.9,29.83,SE,140,16.0,23.0,37,0.00,,---,0.00,VWS V14.01,2013-09-22 18:38:00,
2013-09-22 13:39:00,77.2,48.9,29.83,SE,128,17.0,23.0,37,0.00,,---,0.00,VWS V14.01,2013-09-22 18:39:00,
2013-09-22 13:40:00,77.0,48.0,29.83,SE,135,15.0,23.0,36,0.00,,---,0.00,VWS V14.01,2013-09-22 18:40:00,
2013-09-22 13:42:00,77.4,47.6,29.83,ESE,123,13.0,20.0,35,0.00,,---,0.00,VWS V14.01,2013-09-22 18:42:00,
2013-09-22 13:43:00,77.6,48.6,29.83,SE,130,10.0,20.0,36,0.00,,---,0.00,VWS V14.01,2013-09-22 18:43:00,
2013-09-22 13:44:00,77.6,48.6,29.83,SSE,165,12.0,20.0,36,0.00,,---,0.00,VWS V14.01,2013-09-22 18:44:00,
2013-09-22 13:47:00,77.9,49.6,29.81,SE,138,14.0,20.0,37,0.00,,---,0.00,VWS V14.01,2013-09-22 18:47:00,
2013-09-22 13:48:00,77.9,48.1,29.81,SSE,155,12.0,20.0,35,0.00,,---,0.00,VWS V14.01,2013-09-22 18:48:00,
2013-09-22 13:49:00,77.9,48.8,29.81,SE,144,15.0,20.0,36,0.00,,---,0.00,VWS V14.01,2013-09-22 18:49:00,
2013-09-22 13:50:00,78.1,49.0,29.81,SE,135,12.0,21.0,36,0.00,,---,0.00,VWS V14.01,2013-09-22 18:50:00,
2013-09-22 13:52:00,77.9,49.6,29.81,SSE,150,8.0,12.0,37,0.00,,---,0.00,VWS V14.01,2013-09-22 18:52:00,
2013-09-22 13:53:00,78.1,50.5,29.81,SSE,149,9.0,16.0,38,0.00,,---,0.00,VWS V14.01,2013-09-22 18:53:00,
2013-09-22 13:54:00,78.1,49.0,29.81,SE,134,10.0,16.0,36,0.00,,---,0.00,VWS V14.01,2013-09-22 18:54:00,
2013-09-22 13:55:00,78.1,49.0,29.81,SE,128,14.0,18.0,36,0.00,,---,0.00,VWS V14.01,2013-09-22 18:55:00,
2013-09-22 13:57:00,77.7,47.9,29.81,SSE,154,19.0,22.0,35,0.00,,---,0.00,VWS V14.01,2013-09-22 18:57:00,
2013-09-22 13:59:00,77.6,47.8,29.81,SE,146,17.0,22.0,35,0.00,,---,0.00,VWS V14.01,2013-09-22 18:59:00,
2013-09-22 14:00:00,77.4,48.4,29.81,SSE,148,13.0,22.0,36,0.00,,---,0.00,VWS V14.01,2013-09-22 19:00:00,
2013-09-22 14:02:00,77.4,48.4,29.81,SE,142,13.0,21.0,36,0.00,,---,0.00,VWS V14.01,2013-09-22 19:02:00,
2013-09-22 14:04:00,77.6,48.6,29.81,SE,136,14.0,22.0,36,0.00,,---,0.00,VWS V14.01,2013-09-22 19:04:00,
2013-09-22 14:06:00,77.6,47.8,29.81,SSE,149,12.0,22.0,35,0.00,,---,0.00,VWS V14.01,2013-09-22 19:06:00,
2013-09-22 14:07:00,77.9,48.8,29.81,SE,125,20.0,25.0,36,0.00,,---,0.00,VWS V14.01,2013-09-22 19:07:00,
2013-09-22 14:09:00,78.1,49.7,29.81,SE,138,15.0,25.0,37,0.00,,---,0.00,VWS V14.01,2013-09-22 19:09:00,
2013-09-22 14:10:00,77.9,48.1,29.81,SE,135,15.0,25.0,35,0.00,,---,0.00,VWS V14.01,2013-09-22 19:10:00,
2013-09-22 14:11:00,77.7,47.9,29.81,SSE,150,14.0,17.0,35,0.00,,---,0.00,VWS V14.01,2013-09-22 19:11:00,
2013-09-22 14:12:00,77.7,49.4,29.81,SE,127,19.0,21.0,37,0.00,,---,0.00,VWS V14.01,2013-09-22 19:12:00,
2013-09-22 14:14:00,77.7,47.1,29.81,ESE,113,15.0,21.0,34,0.00,,---,0.00,VWS V14.01,2013-09-22 19:14:00,
2013-09-22 14:16:00,77.7,48.7,29.80,SE,134,16.0,21.0,36,0.00,,---,0.00,VWS V14.01,2013-09-22 19:16:00,
2013-09-22 14:17:00,77.9,48.1,29.80,SE,141,14.0,21.0,35,0.00,,---,0.00,VWS V14.01,2013-09-22 19:17:00,
2013-09-22 14:19:00,78.1,47.5,29.80,SSE,162,6.0,21.0,34,0.00,,---,0.00,VWS V14.01,2013-09-22 19:19:00,
2013-09-22 14:20:00,78.1,47.5,29.80,SE,135,15.0,22.0,34,0.00,,---,0.00,VWS V14.01,2013-09-22 19:20:00,
2013-09-22 14:21:00,78.1,47.5,29.80,SE,135,13.0,17.0,34,0.00,,---,0.00,VWS V14.01,2013-09-22 19:21:00,
2013-09-22 14:22:00,78.1,47.5,29.80,SE,145,17.0,22.0,34,0.00,,---,0.00,VWS V14.01,2013-09-22 19:22:00,
2013-09-22 14:24:00,78.1,47.5,29.80,SSE,156,5.0,22.0,34,0.00,,---,0.00,VWS V14.01,2013-09-22 19:24:00,
2013-09-22 14:26:00,78.1,47.5,29.80,SE,139,14.0,22.0,34,0.00,,---,0.00,VWS V14.01,2013-09-22 19:26:00,
2013-09-22 14:27:00,78.1,48.2,29.80,SSE,153,7.0,22.0,35,0.00,,---,0.00,VWS V14.01,2013-09-22 19:27:00,
2013-09-22 14:29:00,78.1,47.5,29.80,SE,145,9.0,22.0,34,0.00,,---,0.00,VWS V14.01,2013-09-22 19:29:00,
2013-09-22 14:30:00,78.1,47.5,29.80,SE,135,12.0,22.0,34,0.00,,---,0.00,VWS V14.01,2013-09-22 19:30:00,
2013-09-22 14:31:00,78.3,48.4,29.80,SSE,164,5.0,17.0,35,0.00,,---,0.00,VWS V14.01,2013-09-22 19:31:00,
2013-09-22 14:32:00,78.1,47.5,29.80,SSE,157,7.0,19.0,34,0.00,,---,0.00,VWS V14.01,2013-09-22 19:32:00,
2013-09-22 14:34:00,78.1,48.2,29.80,SE,137,14.0,19.0,35,0.00,,---,0.00,VWS V14.01,2013-09-22 19:34:00,
2013-09-22 14:35:00,78.3,47.7,29.80,SE,141,15.0,19.0,34,0.00,,---,0.00,VWS V14.01,2013-09-22 19:35:00,
2013-09-22 14:36:00,78.3,47.7,29.80,SE,126,20.0,22.0,34,0.00,,---,0.00,VWS V14.01,2013-09-22 19:36:00,
2013-09-22 14:37:00,78.3,47.7,29.80,SE,126,16.0,22.0,34,0.00,,---,0.00,VWS V14.01,2013-09-22 19:37:00,
2013-09-22 14:39:00,78.1,47.5,29.80,SSE,148,15.0,24.0,34,0.00,,---,0.00,VWS V14.01,2013-09-22 19:39:00,
2013-09-22 14:40:00,78.1,47.5,29.80,SE,132,15.0,24.0,34,0.00,,---,0.00,VWS V14.01,2013-09-22 19:40:00,
2013-09-22 14:41:00,78.1,47.5,29.80,SE,132,12.0,15.0,34,0.00,,---,0.00,VWS V14.01,2013-09-22 19:41:00,
2013-09-22 14:42:00,78.5,48.6,29.80,SE,146,19.0,22.0,35,0.00,,---,0.00,VWS V14.01,2013-09-22 19:42:00,
2013-09-22 14:44:00,78.5,47.0,29.80,SSE,159,17.0,22.0,33,0.00,,---,0.00,VWS V14.01,2013-09-22 19:44:00,
2013-09-22 14:45:00,78.3,46.9,29.79,SSE,152,17.0,22.0,33,0.00,,---,0.00,VWS V14.01,2013-09-22 19:45:00,
2013-09-22 14:46:00,78.3,46.9,29.79,SSE,154,15.0,25.0,33,0.00,,---,0.00,VWS V14.01,2013-09-22 19:46:00,
2013-09-22 14:47:00,78.5,47.0,29.79,SSE,152,6.0,25.0,33,0.00,,---,0.00,VWS V14.01,2013-09-22 19:47:00,
2013-09-22 14:49:00,78.5,47.8,29.79,SSE,152,19.0,25.0,34,0.00,,---,0.00,VWS V14.01,2013-09-22 19:49:00,
2013-09-22 14:50:00,78.1,46.7,29.79,SSE,153,13.0,25.0,33,0.00,,---,0.00,VWS V14.01,2013-09-22 19:50:00,
2013-09-22 14:52:00,78.1,46.7,29.79,SE,140,19.0,19.0,33,0.00,,---,0.00,VWS V14.01,2013-09-22 19:52:00,
2013-09-22 14:53:00,78.1,47.5,29.79,ESE,113,11.0,19.0,34,0.00,,---,0.00,VWS V14.01,2013-09-22 19:53:00,
2013-09-22 14:54:00,78.5,47.8,29.79,SSE,151,13.0,22.0,34,0.00,,---,0.00,VWS V14.01,2013-09-22 19:54:00,
2013-09-22 14:56:00,78.5,47.8,29.79,SE,144,9.0,22.0,34,0.00,,---,0.00,VWS V14.01,2013-09-22 19:56:00,
2013-09-22 14:57:00,78.5,47.8,29.79,SE,128,13.0,22.0,34,0.00,,---,0.00,VWS V14.01,2013-09-22 19:57:00,
2013-09-22 14:59:00,78.6,47.9,29.79,SE,138,20.0,25.0,34,0.00,,---,0.00,VWS V14.01,2013-09-22 19:59:00,
2013-09-22 15:00:00,78.8,47.3,29.78,SE,140,16.0,25.0,33,0.00,,---,0.00,VWS V14.01,2013-09-22 20:00:00,
2013-09-22 15:01:00,78.8,46.5,29.78,North,360,20.0,25.0,32,0.00,,---,0.00,VWS V14.01,2013-09-22 20:01:00,
2013-09-22 15:02:00,78.6,47.1,29.78,SE,135,17.0,20.0,33,0.00,,---,0.00,VWS V14.01,2013-09-22 20:02:00,
2013-09-22 15:04:00,78.8,46.5,29.78,SE,141,16.0,20.0,32,0.00,,---,0.00,VWS V14.01,2013-09-22 20:04:00,
2013-09-22 15:05:00,78.6,47.1,29.78,SE,138,18.0,20.0,33,0.00,,---,0.00,VWS V14.01,2013-09-22 20:05:00,
2013-09-22 15:06:00,78.6,47.9,29.78,SSE,148,20.0,22.0,34,0.00,,---,0.00,VWS V14.01,2013-09-22 20:06:00,
2013-09-22 15:07:00,78.6,47.9,29.78,SSE,149,20.0,23.0,34,0.00,,---,0.00,VWS V14.01,2013-09-22 20:07:00,
2013-09-22 15:09:00,78.5,46.2,29.78,SE,136,16.0,24.0,32,0.00,,---,0.00,VWS V14.01,2013-09-22 20:09:00,
2013-09-22 15:10:00,78.6,46.3,29.78,SE,135,16.0,24.0,32,0.00,,---,0.00,VWS V14.01,2013-09-22 20:10:00,
2013-09-22 15:11:00,78.6,46.3,29.78,ESE,118,14.0,24.0,32,0.00,,---,0.00,VWS V14.01,2013-09-22 20:11:00,
2013-09-22 15:12:00,78.6,47.1,29.78,SSE,153,13.0,22.0,33,0.00,,---,0.00,VWS V14.01,2013-09-22 20:12:00,
2013-09-22 15:14:00,78.5,47.0,29.78,SE,135,19.0,24.0,33,0.00,,---,0.00,VWS V14.01,2013-09-22 20:14:00,
2013-09-22 15:16:00,78.6,47.1,29.78,SE,140,19.0,24.0,33,0.00,,---,0.00,VWS V14.01,2013-09-22 20:16:00,
2013-09-22 15:17:00,78.6,47.1,29.78,SE,142,9.0,24.0,33,0.00,,---,0.00,VWS V14.01,2013-09-22 20:17:00,
2013-09-22 15:19:00,78.6,47.9,29.78,SSE,151,5.0,24.0,34,0.00,,---,0.00,VWS V14.01,2013-09-22 20:19:00,
2013-09-22 15:20:00,78.6,47.9,29.78,SSE,158,14.0,24.0,34,0.00,,---,0.00,VWS V14.01,2013-09-22 20:20:00,
2013-09-22 15:21:00,78.6,47.9,29.78,South,180,6.0,9.0,34,0.00,,---,0.00,VWS V14.01,2013-09-22 20:21:00,
2013-09-22 15:22:00,78.6,47.9,29.78,SE,136,16.0,17.0,34,0.00,,---,0.00,VWS V14.01,2013-09-22 20:22:00,
2013-09-22 15:24:00,78.6,47.1,29.78,SSE,163,14.0,22.0,33,0.00,,---,0.00,VWS V14.01,2013-09-22 20:24:00,
2013-09-22 15:26:00,78.5,47.0,29.78,SSE,154,19.0,22.0,33,0.00,,---,0.00,VWS V14.01,2013-09-22 20:26:00,
2013-09-22 15:27:00,78.5,48.6,29.78,SSE,162,14.0,22.0,35,0.00,,---,0.00,VWS V14.01,2013-09-22 20:27:00,
2013-09-22 15:29:00,78.5,46.2,29.78,SE,142,15.0,23.0,32,0.00,,---,0.00,VWS V14.01,2013-09-22 20:29:00,
2013-09-22 15:30:00,78.5,47.8,29.78,SSE,158,15.0,23.0,34,0.00,,---,0.00,VWS V14.01,2013-09-22 20:30:00,
2013-09-22 15:31:00,78.5,47.8,29.78,ESE,115,15.0,15.0,34,0.00,,---,0.00,VWS V14.01,2013-09-22 20:31:00,
2013-09-22 15:32:00,78.6,47.1,29.78,SE,134,21.0,21.0,33,0.00,,---,0.00,VWS V14.01,2013-09-22 20:32:00,
2013-09-22 15:34:00,78.6,47.1,29.78,SE,144,11.0,21.0,33,0.00,,---,0.00,VWS V14.01,2013-09-22 20:34:00,
2013-09-22 15:36:00,78.8,47.3,29.78,SE,146,16.0,21.0,33,0.00,,---,0.00,VWS V14.01,2013-09-22 20:36:00,
2013-09-22 15:37:00,78.8,46.5,29.78,SE,144,15.0,21.0,32,0.00,,---,0.00,VWS V14.01,2013-09-22 20:37:00,
2013-09-22 15:39:00,78.8,47.3,29.78,SE,143,14.0,21.0,33,0.00,,---,0.00,VWS V14.01,2013-09-22 20:39:00,
2013-09-22 15:40:00,78.8,46.5,29.78,SE,135,15.0,21.0,32,0.00,,---,0.00,VWS V14.01,2013-09-22 20:40:00,
2013-09-22 15:41:00,78.8,46.5,29.78,SE,134,13.0,16.0,32,0.00,,---,0.00,VWS V14.01,2013-09-22 20:41:00,
2013-09-22 15:42:00,79.0,47.5,29.78,ESE,122,12.0,19.0,33,0.00,,---,0.00,VWS V14.01,2013-09-22 20:42:00,
2013-09-22 15:44:00,79.0,46.7,29.78,SE,137,13.0,20.0,32,0.00,,---,0.00,VWS V14.01,2013-09-22 20:44:00,
2013-09-22 15:46:00,79.0,47.5,29.77,ESE,123,16.0,22.0,33,0.00,,---,0.00,VWS V14.01,2013-09-22 20:46:00,
2013-09-22 15:47:00,78.8,46.5,29.77,ESE,111,15.0,22.0,32,0.00,,---,0.00,VWS V14.01,2013-09-22 20:47:00,
2013-09-22 15:49:00,78.8,46.5,29.77,ESE,114,13.0,22.0,32,0.00,,---,0.00,VWS V14.01,2013-09-22 20:49:00,
2013-09-22 15:50:00,78.8,46.5,29.77,SE,135,16.0,22.0,32,0.00,,---,0.00,VWS V14.01,2013-09-22 20:50:00,
2013-09-22 15:51:00,78.8,46.5,29.77,SE,141,22.0,22.0,32,0.00,,---,0.00,VWS V14.01,2013-09-22 20:51:00,
2013-09-22 15:52:00,78.8,46.5,29.77,SE,131,13.0,22.0,32,0.00,,---,0.00,VWS V14.01,2013-09-22 20:52:00,
2013-09-22 15:54:00,79.0,46.7,29.77,SE,146,20.0,22.0,32,0.00,,---,0.00,VWS V14.01,2013-09-22 20:54:00,
2013-09-22 15:56:00,79.0,46.7,29.77,SE,140,17.0,22.0,32,0.00,,---,0.00,VWS V14.01,2013-09-22 20:56:00,
2013-09-22 15:57:00,79.0,47.5,29.77,SSE,148,17.0,22.0,33,0.00,,---,0.00,VWS V14.01,2013-09-22 20:57:00,
2013-09-22 15:59:00,79.2,47.7,29.77,SE,133,14.0,22.0,33,0.00,,---,0.00,VWS V14.01,2013-09-22 20:59:00,
2013-09-22 16:00:00,79.2,46.8,29.77,SE,135,14.0,22.0,32,0.00,,---,0.00,VWS V14.01,2013-09-22 21:00:00,
2013-09-22 16:01:00,79.2,46.0,29.77,SE,136,11.0,20.0,31,0.00,,---,0.00,VWS V14.01,2013-09-22 21:01:00,
2013-09-22 16:02:00,79.2,46.0,29.77,SE,139,17.0,20.0,31,0.00,,---,0.00,VWS V14.01,2013-09-22 21:02:00,
2013-09-22 16:04:00,79.0,46.7,29.77,SSE,157,20.0,24.0,32,0.00,,---,0.00,VWS V14.01,2013-09-22 21:04:00,
2013-09-22 16:06:00,79.0,46.7,29.77,SSE,159,6.0,24.0,32,0.00,,---,0.00,VWS V14.01,2013-09-22 21:06:00,
2013-09-22 16:07:00,79.0,46.7,29.77,SSE,151,7.0,24.0,32,0.00,,---,0.00,VWS V14.01,2013-09-22 21:07:00,
2013-09-22 16:09:00,78.8,46.5,29.77,SSE,153,17.0,24.0,32,0.00,,---,0.00,VWS V14.01,2013-09-22 21:09:00,
2013-09-22 16:10:00,78.6,46.3,29.77,SSE,158,14.0,24.0,32,0.00,,---,0.00,VWS V14.01,2013-09-22 21:10:00,
2013-09-22 16:11:00,78.6,46.3,29.77,SSE,157,14.0,17.0,32,0.00,,---,0.00,VWS V14.01,2013-09-22 21:11:00,
2013-09-22 16:12:00,78.6,45.5,29.77,SSE,150,16.0,20.0,31,0.00,,---,0.00,VWS V14.01,2013-09-22 21:12:00,
2013-09-22 16:13:00,78.6,45.5,29.77,SE,128,15.0,20.0,31,0.00,,---,0.00,VWS V14.01,2013-09-22 21:13:00,
2013-09-22 16:14:00,78.8,45.6,29.77,SSE,160,20.0,23.0,31,0.00,,---,0.00,VWS V14.01,2013-09-22 21:14:00,
2013-09-22 16:16:00,79.0,45.8,29.76,SE,146,13.0,23.0,31,0.00,,---,0.00,VWS V14.01,2013-09-22 21:16:00,
2013-09-22 16:17:00,78.8,45.6,29.76,SE,133,18.0,23.0,31,0.00,,---,0.00,VWS V14.01,2013-09-22 21:17:00,
2013-09-22 16:18:00,79.0,45.8,29.76,SE,146,17.0,23.0,31,0.00,,---,0.00,VWS V14.01,2013-09-22 21:18:00,
2013-09-22 16:19:00,79.0,45.8,29.76,SSE,148,17.0,23.0,31,0.00,,---,0.00,VWS V14.01,2013-09-22 21:19:00,
2013-09-22 16:20:00,78.8,45.6,29.76,SE,135,16.0,23.0,31,0.00,,---,0.00,VWS V14.01,2013-09-22 21:20:00,
2013-09-22 16:21:00,78.8,46.5,29.76,SSE,155,10.0,17.0,32,0.00,,---,0.00,VWS V14.01,2013-09-22 21:21:00,
2013-09-22 16:23:00,78.8,45.6,29.76,SE,137,18.0,19.0,31,0.00,,---,0.00,VWS V14.01,2013-09-22 21:23:00,
2013-09-22 16:25:00,78.6,45.5,29.76,SSE,150,17.0,24.0,31,0.00,,---,0.00,VWS V14.01,2013-09-22 21:25:00,
2013-09-22 16:26:00,78.6,46.3,29.76,SSE,163,12.0,24.0,32,0.00,,---,0.00,VWS V14.01,2013-09-22 21:26:00,
2013-09-22 16:28:00,78.8,46.5,29.76,SSE,158,10.0,24.0,32,0.00,,---,0.00,VWS V14.01,2013-09-22 21:28:00,
2013-09-22 16:30:00,79.0,46.7,29.75,SSE,162,12.0,24.0,32,0.00,,---,0.00,VWS V14.01,2013-09-22 21:30:00,
2013-09-22 16:31:00,78.8,46.5,29.75,SSE,151,16.0,20.0,32,0.00,,---,0.00,VWS V14.01,2013-09-22 21:31:00,
2013-09-22 16:33:00,78.8,46.5,29.75,SE,128,20.0,22.0,32,0.00,,---,0.00,VWS V14.01,2013-09-22 21:33:00,
2013-09-22 16:35:00,78.8,45.6,29.75,SSE,151,23.0,24.0,31,0.00,,---,0.00,VWS V14.01,2013-09-22 21:35:00,
2013-09-22 16:36:00,78.8,45.6,29.75,SE,136,21.0,24.0,31,0.00,,---,0.00,VWS V14.01,2013-09-22 21:36:00,
2013-09-22 16:38:00,78.8,45.6,29.75,SE,139,19.0,24.0,31,0.00,,---,0.00,VWS V14.01,2013-09-22 21:38:00,
2013-09-22 16:40:00,78.6,46.3,29.75,SE,133,6.0,24.0,32,0.00,,---,0.00,VWS V14.01,2013-09-22 21:40:00,
2013-09-22 16:41:00,78.8,46.5,29.75,SE,126,23.0,27.0,32,0.00,,---,0.00,VWS V14.01,2013-09-22 21:41:00,
2013-09-22 16:43:00,78.8,46.5,29.75,SSE,154,7.0,27.0,32,0.00,,---,0.00,VWS V14.01,2013-09-22 21:43:00,
2013-09-22 16:45:00,78.8,45.6,29.75,SE,126,20.0,27.0,31,0.00,,---,0.00,VWS V14.01,2013-09-22 21:45:00,
2013-09-22 16:46:00,78.8,45.6,29.75,SE,126,16.0,27.0,31,0.00,,---,0.00,VWS V14.01,2013-09-22 21:46:00,
2013-09-22 16:48:00,78.8,45.6,29.75,SSE,148,7.0,27.0,31,0.00,,---,0.00,VWS V14.01,2013-09-22 21:48:00,
2013-09-22 16:50:00,78.8,46.5,29.75,SE,140,26.0,27.0,32,0.00,,---,0.00,VWS V14.01,2013-09-22 21:50:00,
2013-09-22 16:51:00,78.8,45.6,29.75,SE,144,16.0,18.0,31,0.00,,---,0.00,VWS V14.01,2013-09-22 21:51:00,
2013-09-22 16:53:00,79.0,47.5,29.75,SE,146,9.0,19.0,33,0.00,,---,0.00,VWS V14.01,2013-09-22 21:53:00,
2013-09-22 16:55:00,78.8,45.6,29.75,SSE,157,10.0,21.0,31,0.00,,---,0.00,VWS V14.01,2013-09-22 21:55:00,
2013-09-22 16:56:00,78.6,46.3,29.75,SSE,154,9.0,21.0,32,0.00,,---,0.00,VWS V14.01,2013-09-22 21:56:00,
2013-09-22 16:58:00,78.8,46.5,29.75,SSE,158,15.0,23.0,32,0.00,,---,0.00,VWS V14.01,2013-09-22 21:58:00,
2013-09-22 16:59:00,78.8,46.5,29.75,SSE,161,14.0,23.0,32,0.00,,---,0.00,VWS V14.01,2013-09-22 21:59:00,
2013-09-22 17:00:00,78.6,44.6,29.75,SE,144,25.0,25.0,30,0.00,,---,0.00,VWS V14.01,2013-09-22 22:00:00,
2013-09-22 17:01:00,78.5,45.4,29.75,South,182,6.0,21.0,31,0.00,,---,0.00,VWS V14.01,2013-09-22 22:01:00,
2013-09-22 17:03:00,78.6,47.1,29.75,SE,145,13.0,21.0,33,0.00,,---,0.00,VWS V14.01,2013-09-22 22:03:00,
2013-09-22 17:04:00,78.6,47.1,29.75,SSE,147,13.0,21.0,33,0.00,,---,0.00,VWS V14.01,2013-09-22 22:04:00,
2013-09-22 17:05:00,78.6,47.1,29.75,SE,139,13.0,21.0,33,0.00,,---,0.00,VWS V14.01,2013-09-22 22:05:00,
2013-09-22 17:06:00,78.8,46.5,29.75,ESE,121,18.0,21.0,32,0.00,,---,0.00,VWS V14.01,2013-09-22 22:06:00,
2013-09-22 17:09:00,78.8,46.5,29.75,SE,143,6.0,21.0,32,0.00,,---,0.00,VWS V14.01,2013-09-22 22:09:00,
2013-09-22 17:10:00,78.8,47.3,29.75,SE,144,10.0,21.0,33,0.00,,---,0.00,VWS V14.01,2013-09-22 22:10:00,
2013-09-22 17:11:00,78.8,45.6,29.75,SE,145,12.0,21.0,31,0.00,,---,0.00,VWS V14.01,2013-09-22 22:11:00,
2013-09-22 17:14:00,78.6,46.3,29.75,SSE,156,17.0,21.0,32,0.00,,---,0.00,VWS V14.01,2013-09-22 22:14:00,
2013-09-22 17:15:00,78.5,45.4,29.75,SE,144,20.0,21.0,31,0.00,,---,0.00,VWS V14.01,2013-09-22 22:15:00,
2013-09-22 17:16:00,78.5,46.2,29.75,SSE,148,12.0,21.0,32,0.00,,---,0.00,VWS V14.01,2013-09-22 22:16:00,
2013-09-22 17:19:00,78.3,45.2,29.75,SE,134,14.0,23.0,31,0.00,,---,0.00,VWS V14.01,2013-09-22 22:19:00,
2013-09-22 17:20:00,78.3,46.0,29.75,SE,143,18.0,23.0,32,0.00,,---,0.00,VWS V14.01,2013-09-22 22:20:00,
2013-09-22 17:21:00,78.3,45.2,29.75,SSE,161,7.0,18.0,31,0.00,,---,0.00,VWS V14.01,2013-09-22 22:21:00,
2013-09-22 17:24:00,78.3,46.0,29.75,SE,140,16.0,20.0,32,0.00,,---,0.00,VWS V14.01,2013-09-22 22:24:00,
2013-09-22 17:25:00,78.3,46.0,29.75,SSE,155,10.0,20.0,32,0.00,,---,0.00,VWS V14.01,2013-09-22 22:25:00,
2013-09-22 17:26:00,78.5,46.2,29.75,SSE,159,15.0,20.0,32,0.00,,---,0.00,VWS V14.01,2013-09-22 22:26:00,
2013-09-22 17:29:00,78.3,46.0,29.75,SSE,153,14.0,20.0,32,0.00,,---,0.00,VWS V14.01,2013-09-22 22:29:00,
2013-09-22 17:30:00,78.3,46.0,29.75,SE,128,15.0,20.0,32,0.00,,---,0.00,VWS V14.01,2013-09-22 22:30:00,
2013-09-22 17:31:00,78.3,46.0,29.75,SE,128,13.0,18.0,32,0.00,,---,0.00,VWS V14.01,2013-09-22 22:31:00,
2013-09-22 17:35:00,78.3,46.0,29.75,SE,131,15.0,19.0,32,0.00,,---,0.00,VWS V14.01,2013-09-22 22:35:00,
2013-09-22 17:36:00,78.1,45.9,29.75,SSE,151,12.0,20.0,32,0.00,,---,0.00,VWS V14.01,2013-09-22 22:36:00,
2013-09-22 17:40:00,78.1,45.9,29.75,ESE,120,15.0,20.0,32,0.00,,---,0.00,VWS V14.01,2013-09-22 22:40:00,
2013-09-22 17:41:00,78.1,46.7,29.75,SE,146,16.0,19.0,33,0.00,,---,0.00,VWS V14.01,2013-09-22 22:41:00,
2013-09-22 17:45:00,77.9,45.7,29.75,SSE,160,6.0,20.0,32,0.00,,---,0.00,VWS V14.01,2013-09-22 22:45:00,
2013-09-22 17:46:00,77.9,46.5,29.75,SSE,150,14.0,20.0,33,0.00,,---,0.00,VWS V14.01,2013-09-22 22:46:00,
2013-09-22 17:50:00,77.7,46.3,29.75,SSE,148,11.0,20.0,33,0.00,,---,0.00,VWS V14.01,2013-09-22 22:50:00,
2013-09-22 17:51:00,77.7,47.1,29.75,SE,130,15.0,16.0,34,0.00,,---,0.00,VWS V14.01,2013-09-22 22:51:00,
2013-09-22 17:55:00,77.7,46.3,29.75,SE,128,12.0,21.0,33,0.00,,---,0.00,VWS V14.01,2013-09-22 22:55:00,
2013-09-22 17:56:00,77.6,45.4,29.75,South,171,13.0,21.0,32,0.00,,---,0.00,VWS V14.01,2013-09-22 22:56:00,
2013-09-22 18:00:00,77.4,46.1,29.75,SE,141,20.0,21.0,33,0.00,,---,0.00,VWS V14.01,2013-09-22 23:00:00,
2013-09-22 18:01:00,77.4,46.1,29.75,SSE,153,17.0,21.0,33,0.00,,---,0.00,VWS V14.01,2013-09-22 23:01:00,
2013-09-22 18:05:00,77.2,45.9,29.75,SE,133,14.0,21.0,33,0.00,,---,0.00,VWS V14.01,2013-09-22 23:05:00,
2013-09-22 18:06:00,77.2,45.9,29.75,SSE,155,11.0,21.0,33,0.00,,---,0.00,VWS V14.01,2013-09-22 23:06:00,
2013-09-22 18:10:00,77.2,46.7,29.75,SE,142,10.0,21.0,34,0.00,,---,0.00,VWS V14.01,2013-09-22 23:10:00,
2013-09-22 18:11:00,77.2,46.7,29.75,SE,141,15.0,21.0,34,0.00,,---,0.00,VWS V14.01,2013-09-22 23:11:00,
2013-09-22 18:15:00,77.2,46.7,29.75,SE,128,11.0,16.0,34,0.00,,---,0.00,VWS V14.01,2013-09-22 23:15:00,
2013-09-22 18:16:00,77.2,46.7,29.75,SE,132,8.0,16.0,34,0.00,,---,0.00,VWS V14.01,2013-09-22 23:16:00,
2013-09-22 18:20:00,76.8,46.3,29.75,SE,142,14.0,16.0,34,0.00,,---,0.00,VWS V14.01,2013-09-22 23:20:00,
2013-09-22 18:21:00,76.8,46.3,29.75,SSE,149,9.0,16.0,34,0.00,,---,0.00,VWS V14.01,2013-09-22 23:21:00,
2013-09-22 18:25:00,76.7,47.0,29.75,SSE,148,7.0,17.0,35,0.00,,---,0.00,VWS V14.01,2013-09-22 23:25:00,
2013-09-22 18:26:00,76.7,47.0,29.75,SE,128,10.0,17.0,35,0.00,,---,0.00,VWS V14.01,2013-09-22 23:26:00,
2013-09-22 18:27:00,76.7,47.0,29.75,SSE,152,4.0,18.0,35,0.00,,---,0.00,VWS V14.01,2013-09-22 23:27:00,
2013-09-22 18:30:00,76.5,46.8,29.75,SE,136,12.0,18.0,35,0.00,,---,0.00,VWS V14.01,2013-09-22 23:30:00,
2013-09-22 18:31:00,76.5,46.8,29.75,SE,133,12.0,18.0,35,0.00,,---,0.00,VWS V14.01,2013-09-22 23:31:00,
2013-09-22 18:32:00,76.5,46.8,29.75,SE,139,12.0,18.0,35,0.00,,---,0.00,VWS V14.01,2013-09-22 23:32:00,
2013-09-22 18:36:00,76.3,47.4,29.75,SE,142,11.0,18.0,36,0.00,,---,0.00,VWS V14.01,2013-09-22 23:36:00,
2013-09-22 18:37:00,76.1,47.2,29.75,SE,146,11.0,18.0,36,0.00,,---,0.00,VWS V14.01,2013-09-22 23:37:00,
2013-09-22 18:40:00,76.0,47.2,29.75,SE,135,10.0,18.0,36,0.00,,---,0.00,VWS V14.01,2013-09-22 23:40:00,
2013-09-22 18:41:00,76.0,47.9,29.75,SE,140,10.0,10.0,37,0.00,,---,0.00,VWS V14.01,2013-09-22 23:41:00,
2013-09-22 18:42:00,76.0,47.9,29.75,SSE,150,13.0,13.0,37,0.00,,---,0.00,VWS V14.01,2013-09-22 23:42:00,
2013-09-22 18:46:00,75.8,47.0,29.75,SSE,158,14.0,20.0,36,0.00,,---,0.00,VWS V14.01,2013-09-22 23:46:00,
2013-09-22 18:47:00,75.8,47.7,29.75,ESE,115,10.0,20.0,37,0.00,,---,0.00,VWS V14.01,2013-09-22 23:47:00,
2013-09-22 18:50:00,75.4,47.3,29.75,SE,135,11.0,20.0,37,0.00,,---,0.00,VWS V14.01,2013-09-22 23:50:00,
2013-09-22 18:51:00,75.4,47.3,29.75,SE,132,9.0,14.0,37,0.00,,---,0.00,VWS V14.01,2013-09-22 23:51:00,
2013-09-22 18:52:00,75.4,47.3,29.75,SE,128,6.0,14.0,37,0.00,,---,0.00,VWS V14.01,2013-09-22 23:52:00,
2013-09-22 18:56:00,75.1,47.8,29.75,SE,131,6.0,14.0,38,0.00,,---,0.00,VWS V14.01,2013-09-22 23:56:00,
2013-09-22 18:57:00,75.1,47.8,29.75,SE,131,7.0,14.0,38,0.00,,---,0.00,VWS V14.01,2013-09-22 23:57:00,
2013-09-22 19:00:00,74.6,48.0,29.75,SE,135,8.0,14.0,39,0.00,,---,0.00,VWS V14.01,2013-09-23 00:00:00,
2013-09-22 19:02:00,74.6,47.3,29.75,SE,127,15.0,15.0,38,0.00,,---,0.00,VWS V14.01,2013-09-23 00:02:00,
2013-09-22 19:07:00,74.0,48.2,29.75,ESE,119,7.0,15.0,40,0.00,,---,0.00,VWS V14.01,2013-09-23 00:07:00,
2013-09-22 19:10:00,73.9,48.1,29.75,SE,135,8.0,15.0,40,0.00,,---,0.00,VWS V14.01,2013-09-23 00:10:00,
2013-09-22 19:12:00,73.9,48.1,29.75,SE,129,10.0,10.0,40,0.00,,---,0.00,VWS V14.01,2013-09-23 00:12:00,
2013-09-22 19:17:00,73.3,48.2,29.75,SE,134,6.0,12.0,41,0.00,,---,0.00,VWS V14.01,2013-09-23 00:17:00,
2013-09-22 19:20:00,72.7,48.3,29.75,SE,135,6.0,12.0,42,0.00,,---,0.00,VWS V14.01,2013-09-23 00:20:00,
2013-09-22 19:22:00,72.5,48.1,29.75,ESE,117,6.0,6.0,42,0.00,,---,0.00,VWS V14.01,2013-09-23 00:22:00,
2013-09-22 19:27:00,72.0,48.3,29.75,SE,136,5.0,10.0,43,0.00,,---,0.00,VWS V14.01,2013-09-23 00:27:00,
2013-09-22 19:30:00,71.8,48.1,29.75,SE,135,7.0,12.0,43,0.00,,---,0.00,VWS V14.01,2013-09-23 00:30:00,
2013-09-22 19:32:00,71.8,48.1,29.75,SE,130,6.0,11.0,43,0.00,,---,0.00,VWS V14.01,2013-09-23 00:32:00,
2013-09-22 19:33:00,71.8,48.1,29.75,SE,130,8.0,11.0,43,0.00,,---,0.00,VWS V14.01,2013-09-23 00:33:00,
2013-09-22 19:37:00,71.6,47.9,29.75,SE,129,11.0,12.0,43,0.00,,---,0.00,VWS V14.01,2013-09-23 00:37:00,
2013-09-22 19:38:00,71.5,47.8,29.75,SE,125,9.0,13.0,43,0.00,,---,0.00,VWS V14.01,2013-09-23 00:38:00,
2013-09-22 19:40:00,71.3,48.3,29.75,SE,135,9.0,13.0,44,0.00,,---,0.00,VWS V14.01,2013-09-23 00:40:00,
2013-09-22 19:42:00,71.3,48.3,29.75,SE,132,9.0,13.0,44,0.00,,---,0.00,VWS V14.01,2013-09-23 00:42:00,
2013-09-22 19:43:00,71.3,48.3,29.75,SE,134,10.0,13.0,44,0.00,,---,0.00,VWS V14.01,2013-09-23 00:43:00,
2013-09-22 19:47:00,70.9,48.5,29.75,SE,133,10.0,14.0,45,0.00,,---,0.00,VWS V14.01,2013-09-23 00:47:00,
2013-09-22 19:48:00,70.8,48.4,29.75,SE,142,9.0,14.0,45,0.00,,---,0.00,VWS V14.01,2013-09-23 00:48:00,
2013-09-22 19:50:00,70.6,48.2,29.75,SE,135,9.0,14.0,45,0.00,,---,0.00,VWS V14.01,2013-09-23 00:50:00,
2013-09-22 19:52:00,70.4,48.1,29.75,SE,126,7.0,11.0,45,0.00,,---,0.00,VWS V14.01,2013-09-23 00:52:00,
2013-09-22 19:53:00,70.4,48.1,29.75,ESE,119,7.0,12.0,45,0.00,,---,0.00,VWS V14.01,2013-09-23 00:53:00,
2013-09-22 19:57:00,70.1,48.4,29.75,SE,127,5.0,12.0,46,0.00,,---,0.00,VWS V14.01,2013-09-23 00:57:00,
2013-09-22 19:59:00,69.8,48.7,29.75,SE,129,9.0,12.0,47,0.00,,---,0.00,VWS V14.01,2013-09-23 00:59:00,
2013-09-22 20:00:00,69.8,48.7,29.75,SE,135,8.0,13.0,47,0.00,,---,0.00,VWS V14.01,2013-09-23 01:00:00,
2013-09-22 20:02:00,69.8,48.7,29.75,SE,128,11.0,12.0,47,0.00,,---,0.00,VWS V14.01,2013-09-23 01:02:00,
2013-09-22 20:04:00,69.8,48.7,29.75,SE,132,11.0,13.0,47,0.00,,---,0.00,VWS V14.01,2013-09-23 01:04:00,
2013-09-22 20:07:00,69.6,49.1,29.75,SE,139,11.0,13.0,48,0.00,,---,0.00,VWS V14.01,2013-09-23 01:07:00,
2013-09-22 20:09:00,69.6,49.1,29.75,ESE,122,9.0,14.0,48,0.00,,---,0.00,VWS V14.01,2013-09-23 01:09:00,
2013-09-22 20:10:00,69.6,49.1,29.75,SE,135,9.0,14.0,48,0.00,,---,0.00,VWS V14.01,2013-09-23 01:10:00,
2013-09-22 20:12:00,69.4,48.9,29.75,SE,132,10.0,13.0,48,0.00,,---,0.00,VWS V14.01,2013-09-23 01:12:00,
2013-09-22 20:15:00,69.4,48.9,29.75,SE,146,9.0,14.0,48,0.00,,---,0.00,VWS V14.01,2013-09-23 01:15:00,
2013-09-22 20:17:00,69.6,49.1,29.75,SE,144,12.0,17.0,48,0.00,,---,0.00,VWS V14.01,2013-09-23 01:17:00,
2013-09-22 20:18:00,69.6,49.1,29.75,SE,134,14.0,17.0,48,0.00,,---,0.00,VWS V14.01,2013-09-23 01:18:00,
2013-09-22 20:20:00,69.6,49.1,29.75,SE,142,13.0,17.0,48,0.00,,---,0.00,VWS V14.01,2013-09-23 01:20:00,
2013-09-22 20:22:00,69.4,48.9,29.75,ESE,121,11.0,18.0,48,0.00,,---,0.00,VWS V14.01,2013-09-23 01:22:00,
2013-09-22 20:24:00,69.4,48.9,29.75,SE,131,13.0,18.0,48,0.00,,---,0.00,VWS V14.01,2013-09-23 01:24:00,
2013-09-22 20:25:00,69.4,48.9,29.75,SE,131,12.0,18.0,48,0.00,,---,0.00,VWS V14.01,2013-09-23 01:25:00,
2013-09-22 20:27:00,69.3,48.8,29.75,SE,130,10.0,19.0,48,0.00,,---,0.00,VWS V14.01,2013-09-23 01:27:00,
2013-09-22 20:29:00,69.3,48.8,29.75,SE,125,11.0,19.0,48,0.00,,---,0.00,VWS V14.01,2013-09-23 01:29:00,
2013-09-22 20:30:00,69.1,49.2,29.75,SE,137,10.0,19.0,49,0.00,,---,0.00,VWS V14.01,2013-09-23 01:30:00,
2013-09-22 20:32:00,69.1,49.2,29.75,SE,128,14.0,14.0,49,0.00,,---,0.00,VWS V14.01,2013-09-23 01:32:00,
2013-09-22 20:34:00,68.9,49.0,29.75,ESE,121,9.0,17.0,49,0.00,,---,0.00,VWS V14.01,2013-09-23 01:34:00,
2013-09-22 20:35:00,68.9,49.0,29.75,SE,138,11.0,19.0,49,0.00,,---,0.00,VWS V14.01,2013-09-23 01:35:00,
2013-09-22 20:37:00,68.8,48.9,29.75,ESE,106,11.0,19.0,49,0.00,,---,0.00,VWS V14.01,2013-09-23 01:37:00,
2013-09-22 20:39:00,68.6,49.2,29.75,SE,134,10.0,19.0,50,0.00,,---,0.00,VWS V14.01,2013-09-23 01:39:00,
2013-09-22 20:40:00,68.6,49.2,29.75,SE,144,12.0,19.0,50,0.00,,---,0.00,VWS V14.01,2013-09-23 01:40:00,
2013-09-22 20:42:00,68.6,49.2,29.75,SE,143,11.0,16.0,50,0.00,,---,0.00,VWS V14.01,2013-09-23 01:42:00,
2013-09-22 20:44:00,68.4,49.1,29.75,SE,130,12.0,18.0,50,0.00,,---,0.00,VWS V14.01,2013-09-23 01:44:00,
2013-09-22 20:45:00,68.4,49.1,29.75,SE,132,12.0,18.0,50,0.00,,---,0.00,VWS V14.01,2013-09-23 01:45:00,
2013-09-22 20:47:00,68.3,49.5,29.75,SE,143,12.0,18.0,51,0.00,,---,0.00,VWS V14.01,2013-09-23 01:47:00,
2013-09-22 20:48:00,68.3,49.5,29.75,SE,131,12.0,18.0,51,0.00,,---,0.00,VWS V14.01,2013-09-23 01:48:00,
2013-09-22 20:50:00,68.3,49.5,29.75,SE,146,17.0,18.0,51,0.00,,---,0.00,VWS V14.01,2013-09-23 01:50:00,
2013-09-22 20:51:00,68.3,49.5,29.75,SE,129,13.0,18.0,51,0.00,,---,0.00,VWS V14.01,2013-09-23 01:51:00,
2013-09-22 20:52:00,68.3,49.5,29.75,SE,126,12.0,16.0,51,0.00,,---,0.00,VWS V14.01,2013-09-23 01:52:00,
2013-09-22 20:53:00,68.1,49.3,29.75,SE,146,12.0,16.0,51,0.00,,---,0.00,VWS V14.01,2013-09-23 01:53:00,
2013-09-22 20:55:00,68.1,49.8,29.75,SE,140,16.0,16.0,52,0.00,,---,0.00,VWS V14.01,2013-09-23 01:55:00,
2013-09-22 20:56:00,67.9,49.7,29.75,SE,128,18.0,18.0,52,0.00,,---,0.00,VWS V14.01,2013-09-23 01:56:00,
2013-09-22 20:57:00,67.9,49.1,29.75,SE,138,13.0,20.0,51,0.00,,---,0.00,VWS V14.01,2013-09-23 01:57:00,
2013-09-22 20:58:00,67.9,49.1,29.75,SE,129,14.0,20.0,51,0.00,,---,0.00,VWS V14.01,2013-09-23 01:58:00,
2013-09-22 21:00:00,67.9,49.7,29.75,SE,129,13.0,20.0,52,0.00,,---,0.00,VWS V14.01,2013-09-23 02:00:00,
2013-09-22 21:01:00,67.9,49.7,29.75,SE,131,13.0,20.0,52,0.00,,---,0.00,VWS V14.01,2013-09-23 02:01:00,
2013-09-22 21:02:00,67.9,49.1,29.75,SE,136,13.0,19.0,51,0.00,,---,0.00,VWS V14.01,2013-09-23 02:02:00,
2013-09-22 21:03:00,67.9,49.1,29.75,SSE,161,12.0,19.0,51,0.00,,---,0.00,VWS V14.01,2013-09-23 02:03:00,
2013-09-22 21:05:00,67.9,49.1,29.75,SE,125,13.0,19.0,51,0.00,,---,0.00,VWS V14.01,2013-09-23 02:05:00,
2013-09-22 21:06:00,67.9,49.1,29.75,SE,125,13.0,19.0,51,0.00,,---,0.00,VWS V14.01,2013-09-23 02:06:00,
2013-09-22 21:07:00,67.9,49.1,29.75,ESE,109,13.0,19.0,51,0.00,,---,0.00,VWS V14.01,2013-09-23 02:07:00,
2013-09-22 21:08:00,67.9,49.7,29.75,SE,138,16.0,19.0,52,0.00,,---,0.00,VWS V14.01,2013-09-23 02:08:00,
2013-09-22 21:10:00,67.8,49.5,29.75,SE,128,15.0,19.0,52,0.00,,---,0.00,VWS V14.01,2013-09-23 02:10:00,
2013-09-22 21:11:00,67.8,49.5,29.75,SE,130,9.0,12.0,52,0.00,,---,0.00,VWS V14.01,2013-09-23 02:11:00,
2013-09-22 21:12:00,67.8,49.5,29.75,SE,136,14.0,16.0,52,0.00,,---,0.00,VWS V14.01,2013-09-23 02:12:00,
2013-09-22 21:13:00,67.8,49.0,29.75,SE,138,15.0,18.0,51,0.00,,---,0.00,VWS V14.01,2013-09-23 02:13:00,
2013-09-22 21:15:00,67.8,49.0,29.75,SE,125,14.0,19.0,51,0.00,,---,0.00,VWS V14.01,2013-09-23 02:15:00,
2013-09-22 21:16:00,67.8,49.0,29.75,SE,144,15.0,19.0,51,0.00,,---,0.00,VWS V14.01,2013-09-23 02:16:00,
2013-09-22 21:17:00,67.8,49.5,29.75,SE,135,17.0,19.0,52,0.00,,---,0.00,VWS V14.01,2013-09-23 02:17:00,
2013-09-22 21:18:00,67.6,48.8,29.75,SE,138,17.0,19.0,51,0.00,,---,0.00,VWS V14.01,2013-09-23 02:18:00,
2013-09-22 21:20:00,67.6,48.8,29.75,ESE,123,10.0,19.0,51,0.00,,---,0.00,VWS V14.01,2013-09-23 02:20:00,
2013-09-22 21:21:00,67.6,48.8,29.75,SE,127,11.0,13.0,51,0.00,,---,0.00,VWS V14.01,2013-09-23 02:21:00,
2013-09-22 21:22:00,67.6,49.4,29.75,SE,139,12.0,15.0,52,0.00,,---,0.00,VWS V14.01,2013-09-23 02:22:00,
2013-09-22 21:23:00,67.4,49.2,29.75,SE,144,14.0,15.0,52,0.00,,---,0.00,VWS V14.01,2013-09-23 02:23:00,
2013-09-22 21:26:00,67.4,49.2,29.75,SE,138,13.0,19.0,52,0.00,,---,0.00,VWS V14.01,2013-09-23 02:26:00,
2013-09-22 21:28:00,67.4,49.2,29.75,SE,136,14.0,19.0,52,0.00,,---,0.00,VWS V14.01,2013-09-23 02:28:00,
2013-09-22 21:30:00,67.3,49.1,29.75,SE,135,13.0,19.0,52,0.00,,---,0.00,VWS V14.01,2013-09-23 02:30:00,
2013-09-22 21:31:00,67.3,49.1,29.75,SE,131,14.0,16.0,52,0.00,,---,0.00,VWS V14.01,2013-09-23 02:31:00,
2013-09-22 21:32:00,67.3,49.1,29.75,SE,144,16.0,17.0,52,0.00,,---,0.00,VWS V14.01,2013-09-23 02:32:00,
2013-09-22 21:33:00,67.3,49.1,29.75,SSE,153,11.0,17.0,52,0.00,,---,0.00,VWS V14.01,2013-09-23 02:33:00,
2013-09-22 21:36:00,67.3,49.1,29.75,SE,135,13.0,17.0,52,0.00,,---,0.00,VWS V14.01,2013-09-23 02:36:00,
2013-09-22 21:37:00,67.3,49.1,29.75,SSE,150,15.0,18.0,52,0.00,,---,0.00,VWS V14.01,2013-09-23 02:37:00,
2013-09-22 21:38:00,67.3,49.1,29.75,SE,127,14.0,18.0,52,0.00,,---,0.00,VWS V14.01,2013-09-23 02:38:00,
2013-09-22 21:40:00,67.3,49.1,29.75,SE,135,13.0,18.0,52,0.00,,---,0.00,VWS V14.01,2013-09-23 02:40:00,
2013-09-22 21:41:00,67.3,49.1,29.75,ESE,121,15.0,15.0,52,0.00,,---,0.00,VWS V14.01,2013-09-23 02:41:00,
2013-09-22 21:42:00,67.3,49.1,29.75,SE,133,14.0,20.0,52,0.00,,---,0.00,VWS V14.01,2013-09-23 02:42:00,
2013-09-22 21:43:00,67.3,49.1,29.75,SE,128,16.0,20.0,52,0.00,,---,0.00,VWS V14.01,2013-09-23 02:43:00,
2013-09-22 21:46:00,67.3,49.1,29.76,ESE,117,13.0,20.0,52,0.00,,---,0.00,VWS V14.01,2013-09-23 02:46:00,
2013-09-22 21:47:00,67.1,48.9,29.76,SE,130,13.0,20.0,52,0.00,,---,0.00,VWS V14.01,2013-09-23 02:47:00,
2013-09-22 21:48:00,67.1,48.9,29.76,SE,129,14.0,20.0,52,0.00,,---,0.00,VWS V14.01,2013-09-23 02:48:00,
2013-09-22 21:50:00,66.8,49.1,29.76,SE,135,13.0,20.0,53,0.00,,---,0.00,VWS V14.01,2013-09-23 02:50:00,
2013-09-22 21:51:00,66.8,49.1,29.76,SE,127,12.0,16.0,53,0.00,,---,0.00,VWS V14.01,2013-09-23 02:51:00,
2013-09-22 21:52:00,66.8,49.1,29.76,SE,125,10.0,17.0,53,0.00,,---,0.00,VWS V14.01,2013-09-23 02:52:00,
2013-09-22 21:53:00,66.6,49.0,29.76,SE,130,10.0,17.0,53,0.00,,---,0.00,VWS V14.01,2013-09-23 02:53:00,
2013-09-22 21:57:00,66.4,48.8,29.76,SE,140,10.0,17.0,53,0.00,,---,0.00,VWS V14.01,2013-09-23 02:57:00,
2013-09-22 21:58:00,66.3,49.2,29.76,SE,134,11.0,17.0,54,0.00,,---,0.00,VWS V14.01,2013-09-23 02:58:00,
2013-09-22 22:00:00,66.1,49.0,29.76,SE,135,12.0,17.0,54,0.00,,---,0.00,VWS V14.01,2013-09-23 03:00:00,
2013-09-22 22:02:00,66.1,49.0,29.76,SE,134,11.0,13.0,54,0.00,,---,0.00,VWS V14.01,2013-09-23 03:02:00,
2013-09-22 22:03:00,66.0,48.9,29.76,ESE,115,10.0,15.0,54,0.00,,---,0.00,VWS V14.01,2013-09-23 03:03:00,
2013-09-22 22:07:00,65.8,48.7,29.76,SE,140,7.0,15.0,54,0.00,,---,0.00,VWS V14.01,2013-09-23 03:07:00,
2013-09-22 22:08:00,65.6,48.5,29.76,SE,142,6.0,15.0,54,0.00,,---,0.00,VWS V14.01,2013-09-23 03:08:00,
2013-09-22 22:10:00,65.5,48.9,29.76,SE,135,9.0,15.0,55,0.00,,---,0.00,VWS V14.01,2013-09-23 03:10:00,
2013-09-22 22:12:00,65.5,48.9,29.76,SE,130,7.0,14.0,55,0.00,,---,0.00,VWS V14.01,2013-09-23 03:12:00,
2013-09-22 22:13:00,65.3,48.7,29.76,SE,138,11.0,14.0,55,0.00,,---,0.00,VWS V14.01,2013-09-23 03:13:00,
2013-09-22 22:17:00,65.2,49.1,29.76,SE,130,9.0,14.0,56,0.00,,---,0.00,VWS V14.01,2013-09-23 03:17:00,
2013-09-22 22:18:00,65.0,48.9,29.76,SE,132,9.0,14.0,56,0.00,,---,0.00,VWS V14.01,2013-09-23 03:18:00,
2013-09-22 22:20:00,64.8,48.8,29.76,SE,135,10.0,14.0,56,0.00,,---,0.00,VWS V14.01,2013-09-23 03:20:00,
2013-09-22 22:22:00,64.7,49.1,29.76,ESE,121,11.0,11.0,57,0.00,,---,0.00,VWS V14.01,2013-09-23 03:22:00,
2013-09-22 22:23:00,64.7,49.1,29.76,SE,126,14.0,14.0,57,0.00,,---,0.00,VWS V14.01,2013-09-23 03:23:00,
2013-09-22 22:27:00,64.3,48.8,29.76,SE,129,8.0,14.0,57,0.00,,---,0.00,VWS V14.01,2013-09-23 03:27:00,
2013-09-22 22:28:00,64.3,48.8,29.76,SE,132,9.0,14.0,57,0.00,,---,0.00,VWS V14.01,2013-09-23 03:28:00,
2013-09-22 22:30:00,64.0,48.9,29.76,SE,135,9.0,14.0,58,0.00,,---,0.00,VWS V14.01,2013-09-23 03:30:00,
2013-09-22 22:32:00,63.9,48.8,29.76,SE,128,10.0,10.0,58,0.00,,---,0.00,VWS V14.01,2013-09-23 03:32:00,
2013-09-22 22:33:00,63.9,48.8,29.76,SE,126,5.0,11.0,58,0.00,,---,0.00,VWS V14.01,2013-09-23 03:33:00,
2013-09-22 22:37:00,63.4,48.8,29.76,ESE,123,6.0,11.0,59,0.00,,---,0.00,VWS V14.01,2013-09-23 03:37:00,
2013-09-22 22:39:00,63.2,49.1,29.76,SE,129,5.0,11.0,60,0.00,,---,0.00,VWS V14.01,2013-09-23 03:39:00,
2013-09-22 22:40:00,63.2,49.1,29.76,SE,135,6.0,11.0,60,0.00,,---,0.00,VWS V14.01,2013-09-23 03:40:00,
2013-09-22 22:42:00,63.1,49.0,29.76,ESE,117,6.0,7.0,60,0.00,,---,0.00,VWS V14.01,2013-09-23 03:42:00,
2013-09-22 22:44:00,63.1,49.0,29.76,ESE,117,4.0,7.0,60,0.00,,---,0.00,VWS V14.01,2013-09-23 03:44:00,
2013-09-22 22:47:00,62.9,49.3,29.76,ESE,111,6.0,7.0,61,0.00,,---,0.00,VWS V14.01,2013-09-23 03:47:00,
2013-09-22 22:49:00,62.7,49.1,29.76,ESE,112,4.0,7.0,61,0.00,,---,0.00,VWS V14.01,2013-09-23 03:49:00,
2013-09-22 22:50:00,62.7,49.1,29.76,ESE,112,5.0,7.0,61,0.00,,---,0.00,VWS V14.01,2013-09-23 03:50:00,
2013-09-22 22:52:00,62.6,49.0,29.76,ESE,111,4.0,6.0,61,0.00,,---,0.00,VWS V14.01,2013-09-23 03:52:00,
2013-09-22 22:54:00,62.6,49.0,29.76,ESE,108,5.0,7.0,61,0.00,,---,0.00,VWS V14.01,2013-09-23 03:54:00,
2013-09-22 22:57:00,62.4,49.2,29.76,SE,124,4.0,10.0,62,0.00,,---,0.00,VWS V14.01,2013-09-23 03:57:00,
2013-09-22 22:59:00,62.4,49.2,29.76,ESE,113,5.0,10.0,62,0.00,,---,0.00,VWS V14.01,2013-09-23 03:59:00,
2013-09-22 23:00:00,62.3,49.1,29.77,ESE,112,5.0,10.0,62,0.00,,---,0.00,VWS V14.01,2013-09-23 04:00:00,
2013-09-22 23:01:00,62.3,49.1,29.77,ESE,113,5.0,10.0,62,0.00,,---,0.00,VWS V14.01,2013-09-23 04:01:00,
2013-09-22 23:06:00,62.0,48.8,29.77,ESE,118,6.0,7.0,62,0.00,,---,0.00,VWS V14.01,2013-09-23 04:06:00,
2013-09-22 23:10:00,61.8,49.1,29.77,ESE,112,5.0,9.0,63,0.00,,---,0.00,VWS V14.01,2013-09-23 04:10:00,
2013-09-22 23:11:00,61.8,49.1,29.77,SE,131,7.0,7.0,63,0.00,,---,0.00,VWS V14.01,2013-09-23 04:11:00,
2013-09-22 23:16:00,61.5,48.8,29.76,SE,126,7.0,10.0,63,0.00,,---,0.00,VWS V14.01,2013-09-23 04:16:00,
2013-09-22 23:20:00,61.5,48.8,29.76,ESE,112,5.0,10.0,63,0.00,,---,0.00,VWS V14.01,2013-09-23 04:20:00,
2013-09-22 23:21:00,61.5,48.8,29.76,ESE,114,6.0,6.0,63,0.00,,---,0.00,VWS V14.01,2013-09-23 04:21:00,
2013-09-22 23:26:00,61.3,48.6,29.76,ESE,113,5.0,7.0,63,0.00,,---,0.00,VWS V14.01,2013-09-23 04:26:00,
2013-09-22 23:27:00,61.3,48.6,29.76,ESE,113,5.0,7.0,63,0.00,,---,0.00,VWS V14.01,2013-09-23 04:27:00,
2013-09-22 23:30:00,61.3,48.6,29.77,ESE,112,5.0,8.0,63,0.00,,---,0.00,VWS V14.01,2013-09-23 04:30:00,
2013-09-22 23:31:00,61.3,48.6,29.77,ESE,113,5.0,6.0,63,0.00,,---,0.00,VWS V14.01,2013-09-23 04:31:00,
2013-09-22 23:32:00,61.3,48.6,29.77,ESE,113,5.0,6.0,63,0.00,,---,0.00,VWS V14.01,2013-09-23 04:32:00,
2013-09-22 23:36:00,61.2,48.5,29.77,ESE,113,5.0,7.0,63,0.00,,---,0.00,VWS V14.01,2013-09-23 04:36:00,
2013-09-22 23:37:00,61.2,48.5,29.77,ESE,112,6.0,7.0,63,0.00,,---,0.00,VWS V14.01,2013-09-23 04:37:00,
2013-09-22 23:40:00,61.2,48.5,29.77,ESE,112,5.0,10.0,63,0.00,,---,0.00,VWS V14.01,2013-09-23 04:40:00,
2013-09-22 23:41:00,61.2,48.5,29.77,ESE,115,10.0,10.0,63,0.00,,---,0.00,VWS V14.01,2013-09-23 04:41:00,
2013-09-22 23:42:00,61.2,48.5,29.77,ESE,120,4.0,11.0,63,0.00,,---,0.00,VWS V14.01,2013-09-23 04:42:00,
2013-09-22 23:46:00,61.2,48.5,29.77,ESE,108,9.0,11.0,63,0.00,,---,0.00,VWS V14.01,2013-09-23 04:46:00,
2013-09-22 23:47:00,61.2,48.5,29.77,ESE,116,7.0,11.0,63,0.00,,---,0.00,VWS V14.01,2013-09-23 04:47:00,
2013-09-22 23:50:00,61.0,48.8,29.77,ESE,112,7.0,11.0,64,0.00,,---,0.00,VWS V14.01,2013-09-23 04:50:00,
2013-09-22 23:51:00,61.0,48.8,29.77,ESE,114,6.0,7.0,64,0.00,,---,0.00,VWS V14.01,2013-09-23 04:51:00,
2013-09-22 23:52:00,61.0,48.8,29.77,ESE,113,6.0,7.0,64,0.00,,---,0.00,VWS V14.01,2013-09-23 04:52:00,
2013-09-22 23:56:00,60.9,48.7,29.77,ESE,109,7.0,10.0,64,0.00,,---,0.00,VWS V14.01,2013-09-23 04:56:00,
2013-09-22 23:57:00,60.9,48.7,29.77,ESE,115,6.0,10.0,64,0.00,,---,0.00,VWS V14.01,2013-09-23 04:57:00,